K5BWX-2 Weather Reports


time (UTC)temp
C
wind
direction
speed
KPH
gust
KPH
rain 1hr
cm
rain 24hr
cm
rain mn
cm
humidity
%
barometer
mb
20260906120853 22 223 6.4 16.1 0.00 0.13 0.10 87 1016.8
20260906120504 22 211 6.4 19.3 0.00 0.13 0.10 86 1016.8
20260906120436 22 220 6.4 19.3 0.00 0.13 0.10 86 1016.7
20260906120424 22 236 6.4 19.3 0.00 0.13 0.10 86 1016.7
20260906120231 22 236 6.4 19.3 0.00 0.13 0.10 86 1016.7
20260906120219 22 218 6.4 19.3 0.00 0.13 0.10 86 1016.7
20260906115955 22 231 6.4 19.3 0.00 0.13 0.10 86 1016.7
20260906115856 22 212 6.4 19.3 0.00 0.13 0.10 86 1016.5
20260906115754 22 211 6.4 19.3 0.00 0.13 0.10 86 1016.5
20260906115643 22 227 6.4 19.3 0.00 0.13 0.10 86 1016.7
20260906115544 22 231 6.4 19.3 0.00 0.13 0.10 86 1016.5
20260906115444 22 205 6.4 12.9 0.00 0.13 0.10 86 1016.7
20260906115357 22 225 6.4 12.9 0.00 0.13 0.10 86 1016.7
20260906115316 22 225 6.4 11.3 0.00 0.13 0.10 86 1016.7
20260906115306 22 214 6.4 12.9 0.00 0.13 0.10 86 1016.5
20260906115054 22 234 6.4 11.3 0.00 0.13 0.10 86 1016.7
20260906115050 22 251 6.4 11.3 0.00 0.13 0.10 87 1016.7
20260906115040 22 232 6.4 11.3 0.00 0.13 0.10 86 1016.7
20260906115017 22 218 6.4 11.3 0.00 0.13 0.10 86 1016.7
20260906114627 22 217 6.4 11.3 0.00 0.13 0.10 87 1016.5
20260906114527 22 236 6.4 11.3 0.00 0.13 0.10 87 1016.7
20260906114507 22 231 6.4 12.9 0.00 0.13 0.10 87 1016.7
20260906114454 22 229 6.4 11.3 0.00 0.13 0.10 87 1016.5
20260906114228 22 214 6.4 12.9 0.00 0.13 0.10 87 1016.5
20260906114118 22 202 6.4 12.9 0.00 0.13 0.10 87 1016.7
20260906114017 22 207 6.4 14.5 0.00 0.13 0.10 87 1016.7
20260906113950 21 212 6.4 14.5 0.00 0.13 0.10 88 1016.7
20260906113940 21 285 6.4 14.5 0.00 0.13 0.10 87 1016.5
20260906113753 21 227 6.4 14.5 0.00 0.13 0.10 88 1016.5
20260906113740 21 205 6.4 14.5 0.00 0.13 0.10 88 1016.5
20260906113510 21 209 6.4 14.5 0.00 0.13 0.10 88 1016.5
20260906113412 21 217 6.4 14.5 0.00 0.13 0.10 88 1016.5
20260906113311 21 198 6.4 16.1 0.00 0.13 0.10 88 1016.5
20260906113212 21 234 6.4 16.1 0.00 0.13 0.10 89 1016.5
20260906113105 21 257 6.4 16.1 0.00 0.13 0.10 89 1016.4
20260906113006 21 265 6.4 16.1 0.00 0.13 0.10 89 1016.4
20260906112905 21 216 6.4 16.1 0.00 0.13 0.10 90 1016.4
20260906112806 21 228 6.4 16.1 0.00 0.13 0.10 90 1016.4
20260906112706 21 202 6.4 16.1 0.00 0.13 0.10 89 1016.4
20260906112551 21 227 6.4 16.1 0.00 0.13 0.10 89 1016.4
20260906112450 21 213 6.4 17.7 0.00 0.13 0.10 89 1016.4
20260906112351 21 302 8.0 17.7 0.00 0.13 0.10 89 1016.4
20260906112251 21 236 6.4 17.7 0.00 0.13 0.10 89 1016.3
20260906112218 21 233 6.4 17.7 0.00 0.13 0.10 89 1016.4
20260906112209 21 202 6.4 17.7 0.00 0.13 0.10 89 1016.3
20260906111947 21 215 6.4 17.7 0.00 0.13 0.10 89 1016.3
20260906111846 21 223 6.4 17.7 0.00 0.13 0.10 89 1016.3
20260906111748 21 208 6.4 17.7 0.00 0.13 0.10 89 1016.3
20260906111646 21 217 8.0 17.7 0.00 0.13 0.10 89 1016.3
20260906111542 21 235 8.0 17.7 0.00 0.13 0.10 89 1016.3
20260906111439 21 246 8.0 16.1 0.00 0.13 0.10 89 1016.3
20260906111340 21 214 6.4 16.1 0.00 0.13 0.10 88 1016.2
20260906111239 21 207 6.4 16.1 0.00 0.13 0.10 89 1016.2
20260906111140 21 201 8.0 17.7 0.00 0.13 0.10 88 1016.1
20260906111032 21 227 8.0 17.7 0.00 0.13 0.10 88 1016.3
20260906111008 21 234 8.0 17.7 0.00 0.13 0.10 88 1016.2
20260906110955 21 226 6.4 17.7 0.00 0.13 0.10 88 1016.2
20260906110729 21 218 8.0 17.7 0.00 0.13 0.10 88 1016.2
20260906110630 21 228 8.0 17.7 0.00 0.13 0.10 88 1016.1
20260906110523 21 207 6.4 17.7 0.00 0.13 0.10 88 1016.1
20260906110422 21 194 6.4 17.7 0.00 0.13 0.10 88 1016.1
20260906110401 21 274 6.4 17.7 0.00 0.13 0.10 88 1016.2
20260906110349 21 242 6.4 17.7 0.00 0.13 0.10 88 1016.1
20260906110125 21 209 6.4 17.7 0.00 0.13 0.10 88 1016.1
20260906110018 21 213 6.4 17.7 0.00 0.13 0.10 88 1016.0
20260906105925 21 211 8.0 17.7 0.00 0.13 0.10 89 1016.1
20260906105819 21 219 8.0 17.7 0.00 0.13 0.10 89 1016.0
20260906105714 21 225 8.0 17.7 0.00 0.13 0.10 89 1016.0
20260906105619 21 200 8.0 17.7 0.00 0.13 0.10 89 1016.0
20260906105515 21 215 8.0 17.7 0.00 0.13 0.10 89 1016.0
20260906105457 21 217 8.0 17.7 0.00 0.13 0.10 89 1016.1
20260906105451 21 263 8.0 16.1 0.00 0.13 0.10 89 1016.1
20260906105436 21 217 8.0 17.7 0.00 0.13 0.10 89 1016.0
20260906105410 21 210 8.0 17.7 0.00 0.13 0.10 89 1016.1
20260906105038 21 225 8.0 16.1 0.00 0.13 0.10 89 1016.1
20260906105027 21 219 8.0 16.1 0.00 0.13 0.10 89 1016.1
20260906104803 21 221 8.0 16.1 0.00 0.13 0.10 89 1016.2
20260906104704 21 219 8.0 16.1 0.00 0.13 0.10 88 1016.1
20260906104633 21 208 8.0 16.1 0.00 0.13 0.10 88 1016.1
20260906104501 21 211 8.0 16.1 0.00 0.13 0.10 88 1016.0
20260906104405 21 213 8.0 16.1 0.00 0.13 0.10 88 1016.1
20260906104319 21 199 8.0 16.1 0.00 0.13 0.10 88 1016.1
20260906104159 21 225 6.4 16.1 0.00 0.13 0.10 88 1016.1
20260906104100 21 213 8.0 17.7 0.00 0.13 0.10 89 1016.0
20260906104033 21 209 8.0 19.3 0.00 0.13 0.10 89 1016.0
20260906104020 21 212 8.0 17.7 0.00 0.13 0.10 89 1016.0
20260906103955 21 214 8.0 19.3 0.00 0.13 0.10 89 1016.0
20260906103830 21 212 8.0 19.3 0.00 0.13 0.10 89 1015.9
20260906103553 21 216 8.0 19.3 0.00 0.13 0.10 89 1016.0
20260906103452 21 221 8.0 19.3 0.00 0.13 0.10 89 1015.9
20260906103430 21 225 8.0 19.3 0.00 0.13 0.10 89 1016.1
20260906103418 21 215 8.0 19.3 0.00 0.13 0.10 89 1015.9
20260906103149 21 218 8.0 19.3 0.00 0.13 0.10 89 1016.0
20260906103050 21 214 6.4 19.3 0.00 0.13 0.10 89 1015.9
20260906103038 21 220 6.4 19.3 0.00 0.13 0.10 88 1016.0
20260906103028 21 215 6.4 17.7 0.00 0.13 0.10 89 1016.0
20260906102748 21 211 6.4 19.3 0.00 0.13 0.10 88 1016.0
20260906102737 21 208 6.4 19.3 0.00 0.13 0.10 88 1016.0
20260906102725 21 222 6.4 19.3 0.00 0.13 0.10 88 1016.1
20260906102451 21 221 6.4 19.3 0.00 0.13 0.10 88 1016.0
20260906102346 21 221 6.4 20.9 0.00 0.13 0.10 88 1016.0
20260906102247 21 202 8.0 20.9 0.00 0.13 0.10 88 1016.0
20260906102143 21 226 8.0 24.1 0.00 0.13 0.10 88 1016.0
20260906102109 21 215 8.0 24.1 0.00 0.13 0.10 88 1015.9
20260906102038 21 215 8.0 24.1 0.00 0.13 0.10 88 1015.9
20260906101939 21 234 8.0 24.1 0.00 0.13 0.10 88 1016.0
20260906101838 21 221 8.0 24.1 0.00 0.13 0.10 88 1015.9
20260906101740 21 206 9.7 25.7 0.00 0.13 0.10 87 1015.9
20260906101637 21 217 9.7 25.7 0.00 0.13 0.10 87 1016.0
20260906101532 21 207 9.7 25.7 0.00 0.13 0.10 87 1015.9
20260906101430 21 229 9.7 25.7 0.00 0.13 0.10 87 1016.0
20260906101332 21 219 9.7 25.7 0.00 0.13 0.10 87 1016.0
20260906101322 21 218 9.7 25.7 0.00 0.13 0.10 87 1016.0
20260906101307 21 219 9.7 25.7 0.00 0.13 0.10 87 1016.0
20260906101041 21 219 9.7 25.7 0.00 0.13 0.10 87 1016.0
20260906100932 21 198 9.7 25.7 0.00 0.13 0.10 87 1016.0
20260906100926 21 223 8.0 24.1 0.00 0.13 0.10 88 1016.0
20260906100903 21 230 8.0 24.1 0.00 0.13 0.10 88 1016.0
20260906100836 21 227 9.7 25.7 0.00 0.13 0.10 87 1016.0
20260906100822 21 230 8.0 24.1 0.00 0.13 0.10 88 1016.0
20260906100759 21 186 8.0 24.1 0.00 0.13 0.10 87 1016.1
20260906100732 21 215 8.0 24.1 0.00 0.13 0.10 87 1016.0
20260906100413 21 229 8.0 24.1 0.00 0.13 0.10 88 1016.0
20260906100358 21 212 8.0 24.1 0.00 0.13 0.10 88 1016.0
20260906100126 21 214 8.0 24.1 0.00 0.13 0.10 88 1016.0
20260906100044 21 198 8.0 24.1 0.00 0.13 0.10 88 1015.9
20260906095939 21 212 8.0 22.5 0.00 0.13 0.10 88 1015.9
20260906095925 21 210 8.0 22.5 0.00 0.13 0.10 88 1016.0
20260906095855 21 234 8.0 22.5 0.00 0.13 0.10 88 1016.0
20260906095625 21 217 8.0 22.5 0.00 0.13 0.10 88 1016.0
20260906095527 21 227 6.4 22.5 0.00 0.13 0.10 88 1016.0
20260906095429 21 251 6.4 22.5 0.00 0.13 0.10 88 1016.0
20260906095327 21 216 6.4 22.5 0.00 0.13 0.10 88 1016.0
20260906095316 21 215 6.4 19.3 0.00 0.13 0.10 88 1016.0
20260906095249 21 244 6.4 22.5 0.00 0.13 0.10 88 1016.0
20260906095213 21 215 6.4 20.9 0.00 0.13 0.10 88 1016.1
20260906094921 21 228 8.0 16.1 0.00 0.13 0.10 88 1016.0
20260906094823 21 215 8.0 16.1 0.00 0.13 0.10 88 1016.1
20260906094719 21 210 8.0 17.7 0.00 0.13 0.10 88 1016.0
20260906094622 21 206 8.0 17.7 0.00 0.13 0.10 87 1016.1
20260906094530 21 211 8.0 17.7 0.00 0.13 0.10 88 1016.2
20260906094427 21 193 8.0 17.7 0.00 0.13 0.10 88 1016.1
20260906094409 21 209 8.0 17.7 0.00 0.13 0.10 88 1016.2
20260906094348 21 202 8.0 17.7 0.00 0.13 0.10 88 1016.1
20260906094325 21 205 8.0 17.7 0.00 0.13 0.10 88 1016.2
20260906094019 21 205 8.0 17.7 0.00 0.13 0.10 88 1016.2
20260906093920 21 209 8.0 17.7 0.00 0.13 0.10 88 1016.3
20260906093819 21 231 6.4 17.7 0.00 0.13 0.10 88 1016.2
20260906093808 21 215 6.4 11.3 0.00 0.13 0.10 87 1016.0
20260906093806 21 209 6.4 12.9 0.00 0.13 0.10 87 1016.3
20260906093758 21 192 6.4 12.9 0.00 0.13 0.10 88 1016.2
20260906093748 21 209 6.4 12.9 0.00 0.13 0.10 88 1016.3
20260906093728 21 196 6.4 12.9 0.00 0.13 0.10 87 1016.2
20260906093715 21 213 6.4 12.9 0.00 0.13 0.10 88 1016.1
20260906093708 21 207 6.4 9.7 0.00 0.13 0.10 88 1016.1
20260906093703 21 202 6.4 11.3 0.00 0.13 0.10 87 1016.1
20260906093556 21 206 6.4 12.9 0.00 0.13 0.10 88 1016.2
20260906093535 21 219 6.4 12.9 0.00 0.13 0.10 88 1016.2
20260906093226 21 215 6.4 12.9 0.00 0.13 0.10 88 1016.2
20260906093039 21 220 6.4 12.9 0.00 0.13 0.10 88 1016.1
20260906092726 21 212 6.4 9.7 0.00 0.13 0.10 88 1016.0
20260906092705 21 206 6.4 9.7 0.00 0.13 0.10 87 1016.0
20260906092316 21 205 6.4 11.3 0.00 0.13 0.10 87 1016.1
20260906092215 21 202 6.4 11.3 0.00 0.13 0.10 87 1016.0
20260906092115 21 194 6.4 11.3 0.00 0.13 0.10 87 1016.0
20260906092016 21 185 4.8 11.3 0.00 0.13 0.10 86 1016.0
20260906091916 21 208 4.8 11.3 0.00 0.13 0.10 86 1016.1
20260906091812 21 205 6.4 11.3 0.00 0.13 0.10 86 1016.0
20260906091713 21 212 6.4 11.3 0.00 0.13 0.10 86 1016.0
20260906091611 21 219 4.8 11.3 0.00 0.13 0.10 86 1016.0
20260906091514 21 204 4.8 11.3 0.00 0.13 0.10 86 1016.0
20260906091503 21 236 4.8 9.7 0.00 0.13 0.10 86 1016.0
20260906091446 21 222 4.8 11.3 0.00 0.13 0.10 86 1016.0
20260906091421 21 219 4.8 11.3 0.00 0.13 0.10 86 1015.9
20260906091251 21 215 4.8 9.7 0.00 0.13 0.10 86 1015.9
20260906091011 21 206 4.8 11.3 0.00 0.13 0.10 86 1015.9
20260906090945 21 209 4.8 11.3 0.00 0.13 0.10 86 1015.9
20260906090933 21 278 4.8 11.3 0.00 0.13 0.10 86 1016.0
20260906090711 21 225 4.8 11.3 0.00 0.13 0.10 86 1016.1
20260906090609 21 209 4.8 11.3 0.00 0.13 0.10 86 1016.0
20260906090543 21 202 4.8 11.3 0.00 0.13 0.10 85 1016.0
20260906090417 21 202 4.8 11.3 0.00 0.13 0.10 86 1016.0
20260906090311 21 208 4.8 11.3 0.00 0.13 0.10 86 1015.9
20260906090226 21 191 4.8 11.3 0.00 0.13 0.10 85 1016.1
20260906090216 21 208 4.8 11.3 0.00 0.13 0.10 86 1016.0
20260906090207 21 221 4.8 14.5 0.00 0.13 0.10 85 1016.0
20260906090149 21 215 4.8 11.3 0.00 0.13 0.10 86 1016.0
20260906085811 21 213 4.8 14.5 0.00 0.13 0.10 85 1016.0
20260906085711 21 233 4.8 14.5 0.00 0.13 0.10 85 1016.0
20260906085610 21 216 4.8 14.5 0.00 0.13 0.10 86 1016.1
20260906085511 21 213 4.8 14.5 0.00 0.13 0.10 85 1016.0
20260906085410 21 208 4.8 14.5 0.00 0.13 0.10 86 1016.1
20260906085312 21 210 4.8 14.5 0.00 0.13 0.10 87 1016.1
20260906085208 21 184 4.8 14.5 0.00 0.13 0.10 87 1016.1
20260906085152 21 192 4.8 14.5 0.00 0.13 0.10 88 1016.1
20260906085138 21 161 4.8 14.5 0.00 0.13 0.10 88 1016.0
20260906084907 21 221 4.8 12.9 0.00 0.13 0.10 90 1016.0
20260906084849 21 220 4.8 11.3 0.00 0.13 0.10 90 1016.1
20260906084837 21 211 4.8 12.9 0.00 0.13 0.10 90 1016.1
20260906084610 21 220 4.8 14.5 0.00 0.13 0.10 90 1016.1
20260906084506 21 217 4.8 14.5 0.00 0.13 0.10 90 1016.1
20260906084402 21 159 4.8 14.5 0.00 0.13 0.10 91 1016.0
20260906084303 21 204 4.8 14.5 0.00 0.13 0.10 91 1016.1
20260906084202 21 229 4.8 14.5 0.00 0.13 0.10 91 1016.1
20260906084103 21 213 4.8 14.5 0.00 0.13 0.10 91 1016.0
20260906083958 21 202 4.8 14.5 0.00 0.13 0.10 91 1016.0
20260906083857 21 213 4.8 14.5 0.00 0.13 0.10 91 1016.0
20260906083755 21 218 4.8 14.5 0.00 0.13 0.10 91 1016.1
20260906083654 21 210 4.8 14.5 0.00 0.13 0.10 91 1016.0
20260906083612 21 213 6.4 16.1 0.00 0.13 0.10 92 1016.0
20260906083600 21 215 4.8 16.1 0.00 0.13 0.10 91 1016.0
20260906083535 21 224 4.8 16.1 0.00 0.13 0.10 92 1015.9
20260906083413 21 225 6.4 16.1 0.00 0.13 0.10 92 1016.0
20260906083150 21 219 6.4 16.1 0.00 0.13 0.10 92 1016.0
20260906083047 21 219 6.4 16.1 0.00 0.13 0.10 92 1016.0
20260906082940 21 217 6.4 16.1 0.00 0.13 0.10 92 1015.9
20260906082923 21 197 6.4 17.7 0.00 0.13 0.10 92 1015.9
20260906082918 21 198 6.4 17.7 0.00 0.13 0.10 92 1015.9
20260906082912 21 227 6.4 17.7 0.00 0.13 0.10 93 1015.9
20260906082908 21 257 6.4 17.7 0.00 0.13 0.10 93 1015.9
20260906082903 21 273 6.4 17.7 0.00 0.13 0.10 93 1015.9
20260906082850 21 263 6.4 16.1 0.00 0.13 0.10 92 1016.0
20260906082829 21 221 6.4 16.1 0.00 0.13 0.10 92 1016.0
20260906082530 21 215 6.4 17.7 0.00 0.13 0.10 92 1016.0
20260906082027 21 222 6.4 17.7 0.00 0.13 0.10 93 1016.0
20260906081923 21 227 6.4 17.7 0.00 0.13 0.10 93 1016.0
20260906081820 21 221 6.4 17.7 0.00 0.13 0.10 93 1016.0
20260906081721 21 236 6.4 17.7 0.00 0.13 0.10 93 1016.0
20260906081622 21 209 4.8 14.5 0.00 0.13 0.10 93 1016.0
20260906081520 21 218 4.8 14.5 0.00 0.13 0.10 93 1016.0
20260906081414 21 212 4.8 14.5 0.00 0.13 0.10 93 1016.0
20260906081314 21 213 4.8 14.5 0.00 0.13 0.10 94 1015.9
20260906081214 21 211 4.8 14.5 0.00 0.13 0.10 94 1016.0
20260906081147 21 233 4.8 14.5 0.00 0.13 0.10 94 1016.0
20260906081015 21 206 4.8 14.5 0.00 0.13 0.10 94 1016.0
20260906080908 21 228 4.8 14.5 0.00 0.13 0.10 94 1016.0
20260906080808 21 221 4.8 11.3 0.00 0.13 0.10 95 1016.0
20260906080709 21 227 4.8 11.3 0.00 0.13 0.10 95 1016.0
20260906080637 21 255 4.8 11.3 0.00 0.13 0.10 95 1016.0
20260906080626 21 243 4.8 11.3 0.00 0.13 0.10 95 1015.9
20260906080400 21 221 4.8 11.3 0.00 0.13 0.10 95 1015.9
20260906080300 21 238 4.8 11.3 0.00 0.13 0.10 95 1015.9
20260906080200 21 212 4.8 9.7 0.00 0.13 0.10 95 1016.0
20260906080132 21 217 4.8 9.7 0.00 0.13 0.10 95 1016.0
20260906080121 21 221 4.8 9.7 0.00 0.13 0.10 95 1016.0
20260906075858 21 216 4.8 9.7 0.00 0.13 0.10 95 1016.0
20260906075756 21 216 4.8 9.7 0.00 0.13 0.10 95 1016.0
20260906075654 21 216 4.8 9.7 0.00 0.13 0.10 95 1016.0
20260906075555 21 219 4.8 11.3 0.00 0.13 0.10 95 1016.0
20260906075454 21 219 4.8 11.3 0.00 0.13 0.10 95 1016.0
20260906075349 21 219 4.8 11.3 0.00 0.13 0.10 95 1016.0
20260906075342 21 216 4.8 12.9 0.00 0.13 0.10 95 1015.9
20260906075337 21 209 4.8 11.3 0.00 0.13 0.10 95 1015.9
20260906075323 21 225 4.8 11.3 0.00 0.13 0.10 95 1016.0
20260906075138 21 219 4.8 11.3 0.00 0.13 0.10 95 1016.0
20260906075024 21 224 4.8 16.1 0.00 0.13 0.10 95 1015.9
20260906075018 21 232 6.4 16.1 0.00 0.13 0.10 95 1015.9
20260906075004 21 203 4.8 11.3 0.00 0.13 0.10 95 1016.0
20260906074946 21 229 4.8 11.3 0.00 0.13 0.10 95 1015.9
20260906074443 21 217 6.4 16.1 0.00 0.13 0.10 95 1016.0
20260906074342 21 208 6.4 16.1 0.00 0.13 0.10 95 1015.9
20260906074314 21 206 6.4 20.9 0.00 0.13 0.10 95 1015.9
20260906074304 21 211 6.4 16.1 0.00 0.13 0.10 95 1016.0
20260906074101 21 183 6.4 16.1 0.00 0.13 0.10 95 1016.2
20260906074057 21 209 8.0 20.9 0.00 0.13 0.10 95 1016.1
20260906074052 21 217 8.0 20.9 0.00 0.13 0.10 95 1016.1
20260906074040 21 245 6.4 20.9 0.00 0.13 0.10 95 1016.0
20260906074033 21 221 6.4 14.5 0.00 0.13 0.10 95 1016.1
20260906074028 21 222 6.4 16.1 0.00 0.13 0.10 95 1016.1
20260906074009 21 202 8.0 20.9 0.00 0.13 0.10 95 1016.0
20260906073844 21 195 8.0 20.9 0.00 0.13 0.10 95 1016.0
20260906073838 21 217 6.4 16.1 0.00 0.13 0.10 95 1016.2
20260906073821 21 217 8.0 20.9 0.00 0.13 0.10 95 1016.0
20260906073641 21 218 8.0 20.9 0.00 0.13 0.10 95 1016.0
20260906073622 21 205 8.0 20.9 0.00 0.13 0.10 95 1016.0
20260906072829 21 208 6.4 16.1 0.00 0.13 0.10 95 1016.3
20260906072757 21 227 6.4 16.1 0.00 0.13 0.10 95 1016.2
20260906072748 21 225 6.4 16.1 0.00 0.13 0.10 95 1016.2
20260906072524 21 211 6.4 16.1 0.00 0.13 0.10 95 1016.3
20260906072424 21 201 6.4 16.1 0.00 0.13 0.10 95 1016.3
20260906072324 21 212 6.4 16.1 0.00 0.13 0.10 95 1016.4
20260906072223 21 223 6.4 16.1 0.00 0.13 0.10 95 1016.4
20260906072111 21 215 6.4 16.1 0.00 0.13 0.10 95 1016.4
20260906072010 21 213 6.4 16.1 0.00 0.13 0.10 95 1016.4
20260906071914 21 211 8.0 16.1 0.00 0.13 0.10 95 1016.4
20260906071808 21 239 8.0 16.1 0.00 0.13 0.10 95 1016.4
20260906071709 21 223 8.0 16.1 0.00 0.13 0.10 95 1016.4
20260906071604 21 231 8.0 16.1 0.00 0.13 0.10 95 1016.3
20260906071504 21 219 8.0 16.1 0.00 0.13 0.10 95 1016.4
20260906071403 21 213 8.0 16.1 0.00 0.13 0.10 95 1016.4
20260906071345 21 206 6.4 16.1 0.00 0.13 0.10 95 1016.5
20260906071329 21 211 8.0 16.1 0.00 0.13 0.10 95 1016.4
20260906071135 21 209 6.4 17.7 0.00 0.13 0.10 95 1016.5
20260906071123 21 206 6.4 16.1 0.00 0.13 0.10 95 1016.5
20260906070901 21 194 6.4 17.7 0.00 0.13 0.10 95 1016.5
20260906070800 21 251 6.4 17.7 0.00 0.13 0.10 95 1016.7
20260906070656 21 224 6.4 17.7 0.00 0.13 0.10 95 1016.5
20260906070553 21 218 8.0 17.7 0.00 0.13 0.10 95 1016.7
20260906070451 21 214 8.0 17.7 0.00 0.13 0.10 95 1016.7
20260906070350 21 200 8.0 17.7 0.00 0.13 0.10 95 1016.8
20260906070250 21 180 8.0 17.7 0.00 0.13 0.10 95 1016.7
20260906070147 21 218 8.0 17.7 0.00 0.13 0.10 95 1016.7
20260906070040 21 220 8.0 17.7 0.00 0.13 0.10 95 1016.8
20260906070015 21 239 8.0 19.3 0.00 0.13 0.10 95 1016.9
20260906070002 21 205 8.0 19.3 0.00 0.13 0.10 95 1016.8
20260906065741 21 166 8.0 19.3 0.00 0.13 0.10 94 1016.8
20260906065656 21 272 8.0 19.3 0.00 0.13 0.10 94 1016.9
20260906065644 21 213 8.0 19.3 0.00 0.13 0.10 94 1016.9
20260906065621 21 200 8.0 19.3 0.00 0.13 0.10 94 1016.8
20260906065459 21 212 8.0 19.3 0.00 0.13 0.10 94 1016.9
20260906065237 21 204 6.4 19.3 0.00 0.13 0.10 94 1017.0
20260906065135 21 202 6.4 19.3 0.00 0.13 0.10 94 1017.0
20260906065031 21 223 6.4 19.3 0.00 0.13 0.10 94 1017.0
20260906064926 21 217 6.4 16.1 0.00 0.13 0.10 94 1017.0
20260906064826 21 195 6.4 16.1 0.00 0.13 0.10 94 1017.0
20260906064726 21 214 6.4 14.5 0.00 0.13 0.10 94 1017.1
20260906064624 21 214 6.4 14.5 0.00 0.13 0.10 94 1017.0
20260906064525 21 209 6.4 16.1 0.00 0.13 0.10 94 1017.1
20260906064425 21 246 6.4 16.1 0.00 0.13 0.10 94 1017.1
20260906064325 21 207 6.4 16.1 0.00 0.13 0.10 94 1017.1
20260906064224 21 231 6.4 16.1 0.00 0.13 0.10 94 1017.0
20260906064140 21 206 6.4 16.1 0.00 0.13 0.10 94 1017.2
20260906064126 21 225 6.4 16.1 0.00 0.13 0.10 94 1017.0
20260906064120 21 206 4.8 16.1 0.00 0.13 0.10 94 1017.2
20260906064101 21 220 6.4 16.1 0.00 0.13 0.10 94 1017.2
20260906063721 21 210 4.8 16.1 0.00 0.13 0.10 94 1017.2
20260906063623 21 210 4.8 16.1 0.00 0.13 0.10 94 1017.2
20260906063522 21 210 4.8 9.7 0.00 0.13 0.10 94 1017.2
20260906063425 21 214 4.8 9.7 0.00 0.13 0.10 93 1017.2
20260906063322 21 214 4.8 9.7 0.00 0.13 0.10 93 1017.2
20260906063220 21 230 4.8 9.7 0.00 0.13 0.10 93 1017.2
20260906063118 21 234 3.2 9.7 0.00 0.13 0.10 93 1017.2
20260906063049 21 233 4.8 9.7 0.00 0.13 0.10 93 1017.3
20260906063044 21 234 4.8 8.0 0.00 0.13 0.10 93 1017.2
20260906063031 21 228 3.2 8.0 0.00 0.13 0.10 93 1017.2
20260906063008 21 228 3.2 8.0 0.00 0.13 0.10 93 1017.2
20260906062856 21 250 4.8 9.7 0.00 0.13 0.10 93 1017.2
20260906062844 21 228 3.2 8.0 0.00 0.13 0.10 93 1017.2
20260906062701 21 234 4.8 8.0 0.00 0.13 0.10 93 1017.2
20260906062349 21 241 4.8 9.7 0.00 0.13 0.10 93 1017.1
20260906062337 21 243 4.8 9.7 0.00 0.13 0.10 93 1017.1
20260906062115 21 213 4.8 9.7 0.00 0.13 0.10 93 1017.0
20260906062016 21 212 4.8 9.7 0.00 0.13 0.10 93 1017.0
20260906061920 21 219 4.8 9.7 0.03 0.13 0.10 93 1017.1
20260906061816 21 219 4.8 9.7 0.03 0.13 0.10 93 1017.0
20260906061715 21 219 4.8 9.7 0.03 0.13 0.10 93 1017.0
20260906061613 21 219 4.8 9.7 0.03 0.13 0.10 93 1017.0
20260906061512 21 220 4.8 9.7 0.03 0.13 0.10 93 1016.9
20260906061445 21 217 4.8 9.7 0.03 0.13 0.10 93 1016.8
20260906061436 21 217 4.8 9.7 0.03 0.13 0.10 93 1016.9
20260906061209 21 217 4.8 9.7 0.03 0.13 0.10 93 1016.9
20260906061103 21 207 4.8 9.7 0.03 0.13 0.10 93 1016.8
20260906061005 21 205 4.8 8.0 0.03 0.13 0.10 93 1016.8
20260906060904 21 209 4.8 8.0 0.03 0.13 0.10 93 1016.8
20260906060804 21 217 4.8 9.7 0.03 0.13 0.10 93 1016.8
20260906060703 21 209 4.8 9.7 0.05 0.13 0.10 93 1016.8
20260906060600 21 224 4.8 11.3 0.05 0.13 0.10 93 1016.8
20260906060456 21 234 4.8 11.3 0.05 0.13 0.10 93 1016.8
20260906060354 21 234 4.8 11.3 0.05 0.13 0.10 92 1016.9
20260906060254 21 234 4.8 11.3 0.08 0.13 0.10 92 1016.8
20260906060153 21 234 4.8 11.3 0.10 0.13 0.10 92 1016.9
20260906060052 21 234 4.8 11.3 0.10 0.13 0.10 92 1016.9
20260906055949 21 242 4.8 11.3 0.10 0.13 0.10 92 1017.0
20260906055926 21 208 4.8 11.3 0.13 0.13 0.10 92 1017.1
20260906055916 21 247 4.8 11.3 0.13 0.13 0.10 92 1017.1
20260906055647 21 227 3.2 11.3 0.13 0.13 0.10 92 1017.1
20260906055618 21 284 3.2 8.0 0.13 0.13 0.10 92 1017.1
20260906055605 21 227 3.2 8.0 0.13 0.13 0.10 92 1017.2
20260906055342 21 226 3.2 8.0 0.13 0.13 0.10 92 1017.2
20260906055240 21 223 3.2 8.0 0.13 0.13 0.10 92 1017.2
20260906055147 21 30 4.8 14.5 0.13 0.13 0.10 92 1017.3
20260906055037 21 31 4.8 19.3 0.13 0.13 0.10 92 1017.2
20260906054934 21 31 6.4 19.3 0.13 0.13 0.10 92 1017.2
20260906054835 21 31 6.4 19.3 0.13 0.13 0.10 92 1017.2
20260906054732 21 26 6.4 19.3 0.13 0.13 0.10 92 1017.3
20260906054634 21 44 6.4 19.3 0.13 0.13 0.10 92 1017.4
20260906054531 21 46 8.0 19.3 0.13 0.13 0.10 92 1017.4
20260906054430 21 49 8.0 19.3 0.13 0.13 0.10 92 1017.4
20260906054402 21 39 9.7 19.3 0.13 0.13 0.10 92 1017.4
20260906054351 21 55 8.0 19.3 0.13 0.13 0.10 92 1017.4
20260906054129 21 51 9.7 25.7 0.13 0.13 0.10 92 1017.4
20260906054029 21 33 9.7 25.7 0.13 0.13 0.10 92 1017.4
20260906053931 21 69 9.7 25.7 0.13 0.13 0.10 92 1017.3
20260906053830 21 51 9.7 25.7 0.13 0.13 0.10 92 1017.3
20260906053730 21 5 11.3 25.7 0.13 0.13 0.10 92 1017.3
20260906053628 21 28 11.3 25.7 0.13 0.13 0.10 92 1017.3
20260906053529 21 46 11.3 25.7 0.13 0.13 0.10 92 1017.2
20260906053428 21 49 11.3 25.7 0.13 0.13 0.10 92 1017.4
20260906053354 21 61 11.3 24.1 0.13 0.13 0.10 92 1017.4
20260906053343 21 56 11.3 25.7 0.13 0.13 0.10 92 1017.4
20260906053200 21 40 11.3 24.1 0.13 0.13 0.10 92 1017.4
20260906053148 21 22 11.3 24.1 0.13 0.13 0.10 92 1017.4
20260906052923 21 62 11.3 24.1 0.13 0.13 0.10 92 1017.5
20260906052820 21 38 11.3 24.1 0.13 0.13 0.10 92 1017.5
20260906052720 21 55 11.3 24.1 0.13 0.13 0.10 92 1017.7
20260906052701 21 51 11.3 24.1 0.13 0.13 0.10 92 1017.7
20260906052648 21 39 11.3 24.1 0.13 0.13 0.10 92 1017.7
20260906052455 21 31 11.3 27.4 0.13 0.13 0.10 91 1018.0
20260906052443 21 46 11.3 27.4 0.13 0.13 0.10 91 1017.8
20260906052227 21 49 11.3 27.4 0.13 0.13 0.10 91 1018.0
20260906052119 21 31 11.3 27.4 0.13 0.13 0.10 91 1018.0
20260906052033 21 65 11.3 27.4 0.13 0.13 0.10 91 1018.0
20260906051921 21 33 11.3 27.4 0.10 0.10 0.10 91 1018.1
20260906051821 21 40 11.3 27.4 0.10 0.10 0.08 91 1018.1
20260906051721 21 69 11.3 27.4 0.10 0.10 0.08 90 1018.1
20260906051614 21 42 11.3 27.4 0.10 0.10 0.08 90 1018.1
20260906051514 21 32 9.7 27.4 0.10 0.10 0.08 90 1018.2
20260906051447 21 51 11.3 25.7 0.10 0.10 0.08 90 1018.2
20260906051313 21 43 11.3 25.7 0.10 0.10 0.08 90 1018.2
20260906051215 22 46 11.3 25.7 0.10 0.10 0.08 89 1018.2
20260906051110 22 44 11.3 27.4 0.10 0.10 0.08 89 1018.2
20260906051012 22 53 11.3 27.4 0.10 0.10 0.08 89 1018.1
20260906050949 22 37 11.3 27.4 0.08 0.08 0.08 88 1018.1
20260906050943 22 60 11.3 27.4 0.08 0.08 0.05 87 1018.2
20260906050928 22 5 11.3 27.4 0.10 0.10 0.08 88 1018.1
20260906050858 22 24 11.3 27.4 0.10 0.10 0.08 88 1018.1
20260906050502 22 33 11.3 27.4 0.08 0.08 0.05 86 1018.2
20260906050401 22 32 12.9 27.4 0.08 0.08 0.05 86 1018.1
20260906050302 22 40 12.9 27.4 0.05 0.05 0.05 86 1018.1
20260906050203 23 5 11.3 27.4 0.03 0.03 0.03 85 1018.1
20260906050103 23 31 12.9 27.4 0.03 0.03 0.00 85 1018.0
20260906050002 23 53 12.9 27.4 0.03 0.03 0.03 85 1017.9
20260906045900 23 80 12.9 27.4 0.00 0.00 0.03 84 1017.9
20260906045758 23 53 12.9 27.4 0.00 0.00 0.00 83 1017.8
20260906045700 23 48 11.3 27.4 0.00 0.00 0.00 83 1017.7
20260906045600 23 328 11.3 27.4 0.00 0.00 0.00 82 1017.7
20260906045459 23 34 11.3 27.4 0.00 0.00 0.00 81 1017.7
20260906045358 23 38 9.7 27.4 0.00 0.00 0.00 81 1017.7
20260906045330 23 13 9.7 25.7 0.00 0.00 0.00 81 1017.7
20260906045320 23 348 9.7 27.4 0.00 0.00 0.00 81 1017.7
20260906045057 24 40 9.7 25.7 0.00 0.00 0.00 80 1017.7
20260906045034 24 331 9.7 25.7 0.00 0.00 0.00 79 1017.7
20260906045021 24 309 9.7 25.7 0.00 0.00 0.00 80 1017.7
20260906044816 24 348 11.3 25.7 0.00 0.00 0.00 79 1017.7
20260906044810 25 336 9.7 25.7 0.00 0.00 0.00 78 1017.7
20260906044759 24 269 9.7 25.7 0.00 0.00 0.00 80 1017.7
20260906044733 24 42 9.7 25.7 0.00 0.00 0.00 79 1017.7
20260906044344 25 337 9.7 22.5 0.00 0.00 0.00 77 1017.8
20260906044244 25 336 9.7 22.5 0.00 0.00 0.00 77 1017.7
20260906044145 25 0 9.7 22.5 0.00 0.00 0.00 77 1017.8
20260906044046 25 42 9.7 22.5 0.00 0.00 0.00 76 1017.8
20260906043946 25 315 9.7 20.9 0.00 0.00 0.00 75 1017.8
20260906043843 26 325 8.0 20.9 0.00 0.00 0.00 74 1017.7
20260906043817 26 321 6.4 20.9 0.00 0.00 0.00 72 1017.6
20260906043805 26 348 6.4 20.9 0.00 0.00 0.00 73 1017.7
20260906043547 26 326 4.8 16.1 0.00 0.00 0.00 71 1017.6
20260906043440 26 40 4.8 16.1 0.00 0.00 0.00 71 1017.6
20260906043336 26 348 3.2 16.1 0.00 0.00 0.00 69 1017.7
20260906043239 26 337 3.2 14.5 0.00 0.00 0.00 68 1017.6
20260906043143 26 323 1.6 6.4 0.00 0.00 0.00 69 1017.5
20260906043036 26 215 1.6 4.8 0.00 0.00 0.00 68 1017.4
20260906042937 26 215 1.6 4.8 0.00 0.00 0.00 68 1017.3
20260906042835 26 215 1.6 4.8 0.00 0.00 0.00 68 1017.2
20260906042736 26 215 1.6 4.8 0.00 0.00 0.00 68 1017.2
20260906042635 26 215 1.6 4.8 0.00 0.00 0.00 68 1017.2
20260906042534 26 215 1.6 4.8 0.00 0.00 0.00 69 1017.2
20260906042440 26 215 1.6 4.8 0.00 0.00 0.00 69 1017.2
20260906042403 26 215 1.6 4.8 0.00 0.00 0.00 69 1017.2
20260906042354 26 215 1.6 4.8 0.00 0.00 0.00 69 1017.1
20260906042134 26 215 1.6 4.8 0.00 0.00 0.00 69 1017.1
20260906042106 26 215 1.6 4.8 0.00 0.00 0.00 69 1017.1
20260906042056 26 215 1.6 4.8 0.00 0.00 0.00 69 1017.1
20260906041831 26 215 1.6 3.2 0.00 0.00 0.00 69 1017.1
20260906041729 26 215 1.6 3.2 0.00 0.00 0.00 69 1017.0
20260906041630 26 215 1.6 3.2 0.00 0.00 0.00 69 1017.0
20260906041530 26 215 1.6 3.2 0.00 0.00 0.00 69 1017.0
20260906041440 26 215 1.6 3.2 0.00 0.00 0.00 69 1017.0
20260906041425 26 215 1.6 4.8 0.00 0.00 0.00 69 1017.2
20260906041419 26 215 1.6 4.8 0.00 0.00 0.00 69 1017.2
20260906041359 26 215 1.6 3.2 0.00 0.00 0.00 69 1017.0
20260906041231 26 215 1.6 4.8 0.00 0.00 0.00 69 1017.1
20260906041205 26 215 1.6 4.8 0.00 0.00 0.00 69 1017.2
20260906041022 26 215 1.6 4.8 0.00 0.00 0.00 69 1017.2
20260906040853 26 215 1.6 4.8 0.00 0.00 0.00 69 1017.2
20260906040634 26 215 1.6 4.8 0.00 0.00 0.00 69 1017.2
20260906040528 26 215 1.6 4.8 0.00 0.00 0.00 69 1017.2
20260906040422 26 215 1.6 4.8 0.00 0.00 0.00 69 1017.3
20260906040325 26 215 1.6 4.8 0.00 0.00 0.00 69 1017.3
20260906040219 26 215 1.6 4.8 0.00 0.00 0.00 69 1017.3
20260906040201 26 215 0.0 4.8 0.00 0.00 0.00 69 1017.2
20260906040147 26 215 1.6 4.8 0.00 0.00 0.00 69 1017.3
20260906035915 26 215 0.0 4.8 0.00 0.00 0.00 69 1017.3
20260906035821 26 215 0.0 4.8 0.00 0.00 0.00 69 1017.3
20260906035714 26 215 0.0 4.8 0.00 0.00 0.00 70 1017.3
20260906035701 26 215 0.0 3.2 0.00 0.00 0.00 69 1017.4
20260906035645 26 215 0.0 3.2 0.00 0.00 0.00 69 1017.3
20260906035408 26 215 0.0 1.6 0.00 0.00 0.00 70 1017.4
20260906035306 26 215 0.0 1.6 0.00 0.00 0.00 70 1017.5
20260906035208 26 215 0.0 1.6 0.00 0.00 0.00 70 1017.5
20260906035156 26 215 1.6 3.2 0.00 0.00 0.00 70 1017.6
20260906035140 26 215 0.0 3.2 0.00 0.00 0.00 70 1017.5
20260906034933 26 215 1.6 3.2 0.00 0.00 0.00 70 1017.6
20260906034923 26 215 1.6 3.2 0.00 0.00 0.00 70 1017.6
20260906034859 26 215 1.6 3.2 0.00 0.00 0.00 70 1017.6
20260906034837 26 215 1.6 3.2 0.00 0.00 0.00 70 1017.6
20260906034650 26 215 1.6 3.2 0.00 0.00 0.00 70 1017.6
20260906034514 26 215 1.6 3.2 0.00 0.00 0.00 70 1017.6
20260906034246 26 215 1.6 3.2 0.00 0.00 0.00 70 1017.6
20260906034147 26 215 1.6 3.2 0.00 0.00 0.00 70 1017.6
20260906034043 26 215 1.6 3.2 0.00 0.00 0.00 70 1017.5
20260906033943 26 215 1.6 4.8 0.00 0.00 0.00 70 1017.4
20260906033836 26 215 1.6 4.8 0.00 0.00 0.00 71 1017.4
20260906033826 26 215 1.6 4.8 0.00 0.00 0.00 71 1017.5
20260906033805 26 215 1.6 4.8 0.00 0.00 0.00 71 1017.4
20260906033535 26 215 1.6 4.8 0.00 0.00 0.00 71 1017.4
20260906033437 26 215 1.6 4.8 0.00 0.00 0.00 71 1017.4
20260906033358 26 215 0.0 4.8 0.00 0.00 0.00 71 1017.4
20260906033345 26 215 1.6 4.8 0.00 0.00 0.00 71 1017.4
20260906033316 26 215 1.6 4.8 0.00 0.00 0.00 71 1017.4
20260906033149 26 215 1.6 4.8 0.00 0.00 0.00 71 1017.4
20260906032931 26 215 0.0 3.2 0.00 0.00 0.00 71 1017.3
20260906032821 26 215 0.0 1.6 0.00 0.00 0.00 71 1017.3
20260906032721 26 215 0.0 0.0 0.00 0.00 0.00 71 1017.2
20260906032622 26 215 0.0 0.0 0.00 0.00 0.00 71 1017.2
20260906032522 26 215 0.0 0.0 0.00 0.00 0.00 71 1017.1
20260906032420 26 215 0.0 0.0 0.00 0.00 0.00 71 1017.1
20260906032324 26 215 0.0 0.0 0.00 0.00 0.00 71 1017.0
20260906032221 26 215 0.0 0.0 0.00 0.00 0.00 71 1017.0
20260906032123 26 215 0.0 0.0 0.00 0.00 0.00 71 1017.1
20260906032026 26 215 0.0 0.0 0.00 0.00 0.00 71 1017.1
20260906031928 26 215 0.0 0.0 0.00 0.00 0.00 71 1017.0
20260906031829 26 215 0.0 0.0 0.00 0.00 0.00 71 1017.0
20260906031803 26 215 0.0 1.6 0.00 0.00 0.00 71 1017.0
20260906031746 26 215 0.0 0.0 0.00 0.00 0.00 71 1017.0
20260906031539 26 215 0.0 3.2 0.00 0.00 0.00 71 1016.9
20260906031421 26 215 0.0 3.2 0.00 0.00 0.00 71 1017.0
20260906031321 26 215 0.0 3.2 0.00 0.00 0.00 70 1017.1
20260906031223 26 215 0.0 3.2 0.00 0.00 0.00 70 1017.1
20260906031123 26 215 0.0 3.2 0.00 0.00 0.00 70 1017.1
20260906031021 26 215 1.6 3.2 0.00 0.00 0.00 70 1017.2
20260906030921 26 215 1.6 3.2 0.00 0.00 0.00 70 1017.1
20260906030822 26 215 1.6 3.2 0.00 0.00 0.00 70 1017.0
20260906030720 26 215 1.6 3.2 0.00 0.00 0.00 70 1017.0
20260906030626 26 215 1.6 3.2 0.00 0.00 0.00 70 1017.0
20260906030517 26 215 1.6 3.2 0.00 0.00 0.00 70 1017.0
20260906030425 26 215 1.6 3.2 0.00 0.00 0.00 70 1017.0
20260906030348 26 215 0.0 3.2 0.00 0.00 0.00 70 1017.0
20260906030338 26 215 1.6 3.2 0.00 0.00 0.00 70 1017.0
20260906030114 26 215 0.0 3.2 0.00 0.00 0.00 70 1017.1
20260906030017 26 215 0.0 3.2 0.00 0.00 0.00 70 1017.1
20260906025912 26 215 0.0 3.2 0.00 0.00 0.00 70 1017.1
20260906025827 26 215 0.0 3.2 0.00 0.00 0.00 71 1017.2
20260906025823 26 215 0.0 3.2 0.00 0.00 0.00 71 1017.1
20260906025812 26 215 0.0 3.2 0.00 0.00 0.00 70 1017.1
20260906025750 26 215 0.0 3.2 0.00 0.00 0.00 70 1017.1
20260906025411 26 215 1.6 3.2 0.00 0.00 0.00 71 1017.1
20260906025308 26 215 1.6 4.8 0.00 0.00 0.00 72 1017.1
20260906025211 26 215 1.6 4.8 0.00 0.00 0.00 72 1017.1
20260906025111 26 215 1.6 4.8 0.00 0.00 0.00 72 1017.0
20260906025010 26 215 1.6 4.8 0.00 0.00 0.00 72 1017.0
20260906024910 26 215 1.6 4.8 0.00 0.00 0.00 72 1017.1
20260906024809 26 215 1.6 4.8 0.00 0.00 0.00 71 1017.1
20260906024702 26 215 1.6 4.8 0.00 0.00 0.00 71 1017.0
20260906024602 26 215 1.6 4.8 0.00 0.00 0.00 71 1017.1
20260906024502 26 215 3.2 6.4 0.00 0.00 0.00 72 1017.1
20260906024403 26 215 3.2 6.4 0.00 0.00 0.00 72 1017.1
20260906024341 26 215 3.2 8.0 0.00 0.00 0.00 71 1017.1
20260906024330 26 215 3.2 6.4 0.00 0.00 0.00 71 1017.1
20260906024100 26 215 3.2 8.0 0.00 0.00 0.00 71 1017.1
20260906024033 26 215 3.2 8.0 0.00 0.00 0.00 71 1017.1
20260906024021 26 215 3.2 8.0 0.00 0.00 0.00 71 1017.1
20260906023758 26 215 3.2 8.0 0.00 0.00 0.00 71 1017.1
20260906023659 26 219 3.2 8.0 0.00 0.00 0.00 71 1017.1
20260906023559 26 219 3.2 8.0 0.00 0.00 0.00 71 1017.1
20260906023530 26 219 3.2 8.0 0.00 0.00 0.00 71 1017.0
20260906023519 26 219 3.2 8.0 0.00 0.00 0.00 71 1017.0
20260906023259 26 222 3.2 8.0 0.00 0.00 0.00 71 1017.1
20260906023158 26 244 3.2 8.0 0.00 0.00 0.00 71 1017.1
20260906023100 26 215 3.2 4.8 0.00 0.00 0.00 71 1017.1
20260906023000 26 215 3.2 4.8 0.00 0.00 0.00 71 1017.2
20260906022858 26 215 3.2 4.8 0.00 0.00 0.00 71 1017.1
20260906022759 26 215 3.2 4.8 0.00 0.00 0.00 70 1017.1
20260906022659 26 215 3.2 4.8 0.00 0.00 0.00 70 1017.1
20260906022630 26 215 3.2 8.0 0.00 0.00 0.00 70 1016.8
20260906022620 26 215 3.2 4.8 0.00 0.00 0.00 70 1017.0
20260906022559 26 215 3.2 4.8 0.00 0.00 0.00 70 1016.9
20260906022427 26 215 3.2 8.0 0.00 0.00 0.00 70 1016.9
20260906022200 26 215 3.2 8.0 0.00 0.00 0.00 70 1016.8
20260906022058 26 215 3.2 8.0 0.00 0.00 0.00 70 1016.8
20260906021958 26 215 3.2 8.0 0.00 0.00 0.00 70 1016.9
20260906021858 26 215 3.2 8.0 0.00 0.00 0.00 69 1016.9
20260906021759 26 215 3.2 8.0 0.00 0.00 0.00 69 1016.8
20260906021700 26 215 3.2 8.0 0.00 0.00 0.00 69 1016.8
20260906021600 26 215 1.6 8.0 0.00 0.00 0.00 68 1016.8
20260906021459 26 215 1.6 8.0 0.00 0.00 0.00 68 1016.7
20260906021359 26 214 1.6 6.4 0.00 0.00 0.00 69 1016.5
20260906021259 26 208 1.6 6.4 0.00 0.00 0.00 69 1016.5
20260906021158 26 237 1.6 4.8 0.00 0.00 0.00 69 1016.5
20260906021101 26 234 1.6 3.2 0.00 0.00 0.00 69 1016.5
20260906020959 26 234 1.6 3.2 0.00 0.00 0.00 69 1016.4
20260906020859 26 234 1.6 3.2 0.00 0.00 0.00 69 1016.4
20260906020801 26 234 1.6 3.2 0.00 0.00 0.00 69 1016.5
20260906020657 26 234 1.6 3.2 0.00 0.00 0.00 69 1016.5
20260906020557 26 234 1.6 3.2 0.00 0.00 0.00 69 1016.5
20260906020533 26 234 3.2 4.8 0.00 0.00 0.00 69 1016.5
20260906020520 26 234 3.2 4.8 0.00 0.00 0.00 69 1016.5
20260906020255 26 234 3.2 4.8 0.00 0.00 0.00 70 1016.5
20260906020156 26 234 3.2 4.8 0.00 0.00 0.00 70 1016.5
20260906020116 26 233 1.6 4.8 0.00 0.00 0.00 70 1016.4
20260906020100 26 233 1.6 4.8 0.00 0.00 0.00 70 1016.5
20260906020042 26 233 1.6 4.8 0.00 0.00 0.00 70 1016.4
20260906015753 26 233 1.6 4.8 0.00 0.00 0.00 70 1016.3
20260906015651 26 233 1.6 4.8 0.00 0.00 0.00 70 1016.3
20260906015551 26 233 1.6 4.8 0.00 0.00 0.00 70 1016.3
20260906015451 26 233 1.6 4.8 0.00 0.00 0.00 70 1016.3
20260906015350 26 233 1.6 4.8 0.00 0.00 0.00 70 1016.2
20260906015251 26 233 1.6 3.2 0.00 0.00 0.00 70 1016.1
20260906015153 26 233 1.6 4.8 0.00 0.00 0.00 70 1016.2
20260906015124 26 233 1.6 4.8 0.00 0.00 0.00 70 1016.1
20260906015113 26 233 1.6 4.8 0.00 0.00 0.00 70 1016.1
20260906014850 26 233 1.6 4.8 0.00 0.00 0.00 70 1016.0
20260906014751 26 233 1.6 4.8 0.00 0.00 0.00 71 1016.0
20260906014650 26 233 1.6 4.8 0.00 0.00 0.00 71 1016.0
20260906014552 26 233 1.6 4.8 0.00 0.00 0.00 71 1016.0
20260906014452 26 233 1.6 4.8 0.00 0.00 0.00 71 1016.1
20260906014352 26 233 1.6 4.8 0.00 0.00 0.00 71 1016.1
20260906014251 26 233 1.6 4.8 0.00 0.00 0.00 71 1016.1
20260906014152 26 232 1.6 4.8 0.00 0.00 0.00 71 1016.1
20260906014051 26 265 1.6 6.4 0.00 0.00 0.00 71 1016.1
20260906013952 26 265 1.6 6.4 0.00 0.00 0.00 71 1016.1
20260906013935 26 265 3.2 8.0 0.00 0.00 0.00 71 1016.0
20260906013921 26 265 3.2 8.0 0.00 0.00 0.00 71 1016.1
20260906013651 26 265 3.2 8.0 0.00 0.00 0.00 71 1016.0
20260906013552 26 265 3.2 8.0 0.00 0.00 0.00 71 1016.0
20260906013528 25 265 3.2 8.0 0.00 0.00 0.00 71 1015.9
20260906013516 26 265 3.2 8.0 0.00 0.00 0.00 71 1015.9
20260906013248 25 265 4.8 8.0 0.00 0.00 0.00 71 1015.9
20260906013146 25 265 4.8 8.0 0.00 0.00 0.00 71 1015.9
20260906013045 25 303 3.2 8.0 0.00 0.00 0.00 71 1016.0
20260906012951 25 306 3.2 8.0 0.00 0.00 0.00 71 1016.1
20260906012844 25 268 3.2 6.4 0.00 0.00 0.00 71 1016.1
20260906012740 25 263 3.2 6.4 0.00 0.00 0.00 72 1016.1
20260906012640 25 306 4.8 8.0 0.00 0.00 0.00 72 1016.2
20260906012541 25 293 4.8 11.3 0.00 0.00 0.00 73 1016.1
20260906012439 25 290 4.8 11.3 0.00 0.00 0.00 73 1016.1
20260906012344 25 270 4.8 11.3 0.00 0.00 0.00 73 1016.1
20260906012313 25 212 4.8 11.3 0.00 0.00 0.00 74 1016.1
20260906012300 25 212 4.8 11.3 0.00 0.00 0.00 73 1016.1
20260906012037 25 212 4.8 11.3 0.00 0.00 0.00 73 1016.1
20260906011936 25 212 4.8 11.3 0.00 0.00 0.00 73 1016.1
20260906011834 25 210 4.8 11.3 0.00 0.00 0.00 73 1016.1
20260906011733 25 202 4.8 11.3 0.00 0.00 0.00 73 1016.2
20260906011632 26 206 6.4 12.9 0.00 0.00 0.00 73 1016.3
20260906011538 26 215 6.4 17.7 0.00 0.00 0.00 72 1016.5
20260906011432 26 212 6.4 22.5 0.00 0.00 0.00 72 1016.7
20260906011333 26 251 8.0 33.8 0.00 0.00 0.00 72 1016.8
20260906011259 26 214 8.0 33.8 0.00 0.00 0.00 72 1016.4
20260906011249 26 287 8.0 33.8 0.00 0.00 0.00 72 1016.7
20260906011101 26 181 8.0 33.8 0.00 0.00 0.00 71 1016.3
20260906011049 26 211 8.0 33.8 0.00 0.00 0.00 71 1016.4
20260906010824 26 215 8.0 33.8 0.00 0.00 0.00 70 1016.3
20260906010725 26 265 6.4 33.8 0.00 0.00 0.00 70 1016.7
20260906010618 27 221 4.8 33.8 0.00 0.00 0.00 69 1016.8
20260906010556 27 38 3.2 14.5 0.00 0.00 0.00 67 1016.7
20260906010543 27 245 3.2 33.8 0.00 0.00 0.00 68 1016.9
20260906010320 27 288 1.6 11.3 0.00 0.00 0.00 65 1016.5
20260906010224 27 307 1.6 6.4 0.00 0.00 0.00 65 1016.2
20260906010119 27 205 3.2 6.4 0.00 0.00 0.00 65 1016.0
20260906010019 27 130 3.2 9.7 0.00 0.00 0.00 65 1016.1
20260906005920 27 200 3.2 9.7 0.00 0.00 0.00 65 1016.1
20260906005819 27 200 3.2 9.7 0.00 0.00 0.00 65 1016.1
20260906005716 27 200 3.2 9.7 0.00 0.00 0.00 65 1016.1
20260906005614 27 200 3.2 9.7 0.00 0.00 0.00 65 1016.2
20260906005416 27 200 3.2 9.7 0.00 0.00 0.00 65 1016.3
20260906005314 27 186 3.2 9.7 0.00 0.00 0.00 65 1016.2
20260906005212 27 183 1.6 9.7 0.00 0.00 0.00 65 1016.2
20260906005113 27 200 1.6 9.7 0.00 0.00 0.00 64 1016.2
20260906005012 27 190 3.2 6.4 0.00 0.00 0.00 64 1016.2
20260906004911 27 190 3.2 6.4 0.00 0.00 0.00 64 1016.2
20260906004814 27 190 3.2 6.4 0.00 0.00 0.00 64 1016.3
20260906004733 28 78 3.2 6.4 0.00 0.00 0.00 64 1016.3
20260906004727 27 78 4.8 6.4 0.00 0.00 0.00 64 1016.3
20260906004713 28 188 3.2 6.4 0.00 0.00 0.00 64 1016.3
20260906004651 27 78 3.2 6.4 0.00 0.00 0.00 64 1016.3
20260906004304 27 78 4.8 6.4 0.00 0.00 0.00 64 1016.3
20260906004204 27 78 4.8 6.4 0.00 0.00 0.00 64 1016.3
20260906004104 27 78 4.8 6.4 0.00 0.00 0.00 65 1016.3
20260906004005 27 77 4.8 6.4 0.00 0.00 0.00 65 1016.2
20260906003905 27 91 3.2 6.4 0.00 0.00 0.00 65 1016.3
20260906003802 27 88 3.2 6.4 0.00 0.00 0.00 65 1016.3
20260906003701 27 72 3.2 6.4 0.00 0.00 0.00 65 1016.3
20260906003600 27 91 3.2 6.4 0.00 0.00 0.00 65 1016.3
20260906003458 27 101 3.2 6.4 0.00 0.00 0.00 65 1016.3
20260906003400 27 101 3.2 6.4 0.00 0.00 0.00 65 1016.3
20260906003304 27 102 3.2 6.4 0.00 0.00 0.00 65 1016.3
20260906003201 27 102 3.2 6.4 0.00 0.00 0.00 65 1016.3
20260906003056 27 169 3.2 6.4 0.00 0.00 0.00 65 1016.4
20260906002953 27 169 1.6 6.4 0.00 0.00 0.00 65 1016.4
20260906002854 27 169 1.6 6.4 0.00 0.00 0.00 65 1016.4
20260906002739 27 169 1.6 6.4 0.00 0.00 0.00 65 1016.4
20260906002716 27 169 1.6 4.8 0.00 0.00 0.00 65 1016.3
20260906002703 27 169 1.6 4.8 0.00 0.00 0.00 65 1016.3
20260906002439 27 169 1.6 4.8 0.00 0.00 0.00 65 1016.3
20260906002412 27 169 1.6 4.8 0.00 0.00 0.00 65 1016.4
20260906002357 27 169 1.6 4.8 0.00 0.00 0.00 65 1016.3
20260906002142 27 169 1.6 4.8 0.00 0.00 0.00 65 1016.5
20260906002036 27 187 1.6 4.8 0.00 0.00 0.00 65 1016.4
20260906001933 27 187 1.6 4.8 0.00 0.00 0.00 65 1016.5
20260906001833 27 187 1.6 4.8 0.00 0.00 0.00 65 1016.5
20260906001731 27 187 1.6 6.4 0.00 0.00 0.00 65 1016.4
20260906001658 27 132 1.6 6.4 0.00 0.00 0.00 65 1016.5
20260906001648 27 152 1.6 6.4 0.00 0.00 0.00 65 1016.5
20260906001433 27 132 1.6 6.4 0.00 0.00 0.00 65 1016.4
20260906001316 27 132 1.6 6.4 0.00 0.00 0.00 65 1016.5
20260906001216 27 132 1.6 6.4 0.00 0.00 0.00 65 1016.5
20260906001118 27 111 1.6 6.4 0.00 0.00 0.00 66 1016.5
20260906001016 27 111 1.6 6.4 0.00 0.00 0.00 66 1016.5
20260906000917 27 111 1.6 6.4 0.00 0.00 0.00 65 1016.5
20260906000813 27 108 1.6 6.4 0.00 0.00 0.00 65 1016.5
20260906000712 27 141 1.6 4.8 0.00 0.00 0.00 65 1016.4
20260906000612 27 283 1.6 4.8 0.00 0.00 0.00 65 1016.3
20260906000513 27 94 1.6 4.8 0.00 0.00 0.00 65 1016.3
20260906000411 27 130 1.6 4.8 0.00 0.00 0.00 65 1016.3
20260906000305 27 130 1.6 4.8 0.00 0.00 0.00 65 1016.3
20260906000242 27 130 1.6 4.8 0.00 0.00 0.00 65 1016.3
20260906000230 27 129 1.6 4.8 0.00 0.00 0.00 65 1016.3
20260906000004 27 130 1.6 4.8 0.00 0.00 0.00 65 1016.3
20260905235904 27 136 1.6 4.8 0.00 0.00 0.00 65 1016.4
20260905235755 27 131 1.6 4.8 0.00 0.00 0.00 65 1016.4
20260905235654 27 200 1.6 4.8 0.00 0.00 0.00 65 1016.4
20260905235555 27 200 1.6 4.8 0.00 0.00 0.00 65 1016.4
20260905235456 27 200 1.6 4.8 0.00 0.00 0.00 65 1016.4
20260905235351 27 200 1.6 4.8 0.00 0.00 0.00 65 1016.5
20260905235246 27 200 1.6 6.4 0.00 0.00 0.00 65 1016.5
20260905235145 27 200 1.6 6.4 0.00 0.00 0.00 65 1016.5
20260905235049 27 200 1.6 6.4 0.00 0.00 0.00 66 1016.5
20260905234946 27 201 1.6 6.4 0.00 0.00 0.00 66 1016.5
20260905234845 27 198 1.6 6.4 0.00 0.00 0.00 65 1016.5
20260905234744 27 198 1.6 6.4 0.00 0.00 0.00 65 1016.4
20260905234642 27 198 1.6 6.4 0.00 0.00 0.00 65 1016.4
20260905234626 27 132 1.6 6.4 0.00 0.00 0.00 65 1016.3
20260905234612 27 208 1.6 6.4 0.00 0.00 0.00 65 1016.3
20260905234339 27 74 1.6 9.7 0.00 0.00 0.00 65 1016.3
20260905234233 27 71 1.6 9.7 0.00 0.00 0.00 65 1016.3
20260905234132 27 75 1.6 9.7 0.00 0.00 0.00 65 1016.3
20260905234032 27 75 1.6 9.7 0.00 0.00 0.00 65 1016.2
20260905233931 27 74 3.2 9.7 0.00 0.00 0.00 64 1016.2
20260905233855 27 119 3.2 9.7 0.00 0.00 0.00 64 1016.2
20260905233846 27 119 1.6 9.7 0.00 0.00 0.00 64 1016.2
20260905233625 27 119 3.2 9.7 0.00 0.00 0.00 64 1016.1
20260905233525 27 119 3.2 9.7 0.00 0.00 0.00 64 1016.2
20260905233426 27 89 3.2 9.7 0.00 0.00 0.00 64 1016.2
20260905233323 27 39 1.6 8.0 0.00 0.00 0.00 64 1016.2
20260905233221 27 103 1.6 8.0 0.00 0.00 0.00 64 1016.2
20260905233146 27 73 1.6 8.0 0.00 0.00 0.00 65 1016.2
20260905233137 27 132 1.6 8.0 0.00 0.00 0.00 65 1016.2
20260905232919 27 73 3.2 8.0 0.00 0.00 0.00 66 1016.3
20260905232817 27 73 3.2 8.0 0.00 0.00 0.00 66 1016.3
20260905232706 27 170 3.2 9.7 0.00 0.00 0.00 66 1016.3
20260905232602 27 208 3.2 9.7 0.00 0.00 0.00 66 1016.2
20260905232538 27 119 3.2 11.3 0.00 0.00 0.00 66 1016.1
20260905232531 27 120 4.8 11.3 0.00 0.00 0.00 66 1016.1
20260905232515 27 145 3.2 11.3 0.00 0.00 0.00 66 1016.2
20260905232446 27 119 3.2 11.3 0.00 0.00 0.00 66 1016.2
20260905232115 27 97 4.8 11.3 0.00 0.00 0.00 66 1016.1
20260905231957 27 66 4.8 11.3 0.00 0.00 0.00 66 1016.1
20260905231856 27 69 3.2 11.3 0.00 0.00 0.00 66 1016.1
20260905231757 27 77 3.2 11.3 0.00 0.00 0.00 66 1016.2
20260905231656 27 76 3.2 11.3 0.00 0.00 0.00 66 1016.1
20260905231555 27 76 3.2 11.3 0.00 0.00 0.00 67 1016.2
20260905231452 27 57 3.2 9.7 0.00 0.00 0.00 66 1016.2
20260905231353 27 107 3.2 9.7 0.00 0.00 0.00 67 1016.2
20260905231250 27 92 3.2 6.4 0.00 0.00 0.00 67 1016.2
20260905231145 27 91 3.2 6.4 0.00 0.00 0.00 67 1016.2
20260905231045 27 92 3.2 6.4 0.00 0.00 0.00 68 1016.2
20260905230944 27 89 3.2 6.4 0.00 0.00 0.00 68 1016.2
20260905230844 27 87 3.2 6.4 0.00 0.00 0.00 68 1016.1
20260905230741 27 87 3.2 6.4 0.00 0.00 0.00 68 1016.1
20260905230639 27 84 3.2 6.4 0.00 0.00 0.00 68 1016.1
20260905230540 27 84 3.2 11.3 0.00 0.00 0.00 68 1016.1
20260905230445 27 84 3.2 11.3 0.00 0.00 0.00 69 1016.2
20260905230337 27 83 3.2 11.3 0.00 0.00 0.00 68 1016.2
20260905230235 27 129 1.6 11.3 0.00 0.00 0.00 68 1016.2
20260905230206 27 130 1.6 11.3 0.00 0.00 0.00 68 1016.2
20260905230157 27 129 1.6 11.3 0.00 0.00 0.00 68 1016.3
20260905225931 27 130 1.6 11.3 0.00 0.00 0.00 68 1016.3
20260905225829 27 69 1.6 11.3 0.00 0.00 0.00 68 1016.3
20260905225729 27 186 1.6 11.3 0.00 0.00 0.00 68 1016.3
20260905225641 27 99 3.2 11.3 0.00 0.00 0.00 67 1016.0
20260905225628 27 88 1.6 11.3 0.00 0.00 0.00 69 1016.3
20260905225604 27 160 1.6 9.7 0.00 0.00 0.00 68 1016.3
20260905225450 27 99 3.2 11.3 0.00 0.00 0.00 68 1015.9
20260905225444 27 186 3.2 9.7 0.00 0.00 0.00 68 1016.2
20260905225426 27 160 3.2 9.7 0.00 0.00 0.00 68 1016.3
20260905225354 27 186 3.2 9.7 0.00 0.00 0.00 68 1016.2
20260905225315 27 113 3.2 9.7 0.00 0.00 0.00 68 1016.3
20260905225149 27 113 3.2 9.7 0.00 0.00 0.00 68 1016.3
20260905225028 27 113 4.8 9.7 0.00 0.00 0.00 68 1016.2
20260905225007 27 113 4.8 11.3 0.00 0.00 0.00 68 1016.2
20260905224839 27 90 4.8 11.3 0.00 0.00 0.00 68 1016.2
20260905224711 27 71 4.8 11.3 0.00 0.00 0.00 68 1016.1
20260905224646 27 71 4.8 11.3 0.00 0.00 0.00 68 1016.1
20260905224306 27 80 3.2 11.3 0.00 0.00 0.00 67 1016.0
20260905224202 27 79 3.2 11.3 0.00 0.00 0.00 67 1016.0
20260905224053 27 119 3.2 11.3 0.00 0.00 0.00 67 1016.0
20260905223951 27 68 3.2 11.3 0.00 0.00 0.00 67 1016.0
20260905223852 27 105 3.2 11.3 0.00 0.00 0.00 68 1016.0
20260905223752 27 117 1.6 11.3 0.00 0.00 0.00 68 1016.1
20260905223653 27 175 1.6 11.3 0.00 0.00 0.00 67 1016.1
20260905223552 27 62 1.6 11.3 0.00 0.00 0.00 67 1016.1
20260905223451 27 62 1.6 12.9 0.00 0.00 0.00 68 1016.1
20260905223351 27 62 1.6 12.9 0.00 0.00 0.00 68 1016.1
20260905223249 27 188 1.6 12.9 0.00 0.00 0.00 67 1016.2
20260905223219 27 167 1.6 12.9 0.00 0.00 0.00 68 1016.2
20260905223208 27 86 1.6 12.9 0.00 0.00 0.00 68 1016.2
20260905222944 27 113 1.6 12.9 0.00 0.00 0.00 68 1016.2
20260905222844 27 117 3.2 12.9 0.00 0.00 0.00 69 1016.2
20260905222742 27 180 3.2 12.9 0.00 0.00 0.00 68 1016.2
20260905222642 27 180 3.2 12.9 0.00 0.00 0.00 68 1016.3
20260905222529 27 180 3.2 12.9 0.00 0.00 0.00 68 1016.3
20260905222426 27 104 3.2 12.9 0.00 0.00 0.00 68 1016.4
20260905222328 27 163 3.2 12.9 0.00 0.00 0.00 68 1016.4
20260905222228 27 218 3.2 12.9 0.00 0.00 0.00 68 1016.4
20260905222127 27 217 3.2 12.9 0.00 0.00 0.00 68 1016.5
20260905222022 27 218 3.2 12.9 0.00 0.00 0.00 68 1016.5
20260905221924 27 138 3.2 12.9 0.00 0.00 0.00 68 1016.5
20260905221821 27 183 3.2 12.9 0.00 0.00 0.00 68 1016.5
20260905221805 27 145 3.2 12.9 0.00 0.00 0.00 68 1016.5
20260905221752 27 144 3.2 12.9 0.00 0.00 0.00 68 1016.5
20260905221518 27 167 3.2 12.9 0.00 0.00 0.00 67 1016.5
20260905221420 27 132 3.2 11.3 0.00 0.00 0.00 68 1016.7
20260905221317 27 234 3.2 9.7 0.00 0.00 0.00 67 1016.7
20260905221217 27 140 3.2 12.9 0.00 0.00 0.00 67 1016.7
20260905221116 27 140 3.2 12.9 0.00 0.00 0.00 67 1016.7
20260905221010 27 188 3.2 12.9 0.00 0.00 0.00 67 1016.7
20260905220913 27 145 3.2 12.9 0.00 0.00 0.00 66 1016.7
20260905220809 27 128 3.2 12.9 0.00 0.00 0.00 66 1016.8
20260905220706 27 86 4.8 12.9 0.00 0.00 0.00 66 1016.7
20260905220605 27 134 4.8 17.7 0.00 0.00 0.00 66 1016.8
20260905220501 28 173 4.8 17.7 0.00 0.00 0.00 65 1016.7
20260905220400 28 150 4.8 17.7 0.00 0.00 0.00 65 1016.8
20260905220258 28 111 4.8 17.7 0.00 0.00 0.00 65 1016.8
20260905220201 28 174 4.8 17.7 0.00 0.00 0.00 65 1016.8
20260905220059 28 82 4.8 17.7 0.00 0.00 0.00 65 1016.9
20260905215953 28 81 4.8 17.7 0.00 0.00 0.00 65 1016.9
20260905215853 28 26 4.8 17.7 0.00 0.00 0.00 66 1016.9
20260905215753 28 175 4.8 17.7 0.00 0.00 0.00 65 1017.0
20260905215652 28 154 4.8 17.7 0.00 0.00 0.00 66 1017.0
20260905215555 28 121 3.2 14.5 0.00 0.00 0.00 66 1017.0
20260905215439 28 161 3.2 14.5 0.00 0.00 0.00 67 1017.1
20260905215340 28 142 4.8 17.7 0.00 0.00 0.00 65 1017.0
20260905215240 28 123 4.8 17.7 0.00 0.00 0.00 65 1017.1
20260905215151 28 219 4.8 17.7 0.00 0.00 0.00 65 1017.1
20260905215040 28 190 6.4 17.7 0.00 0.00 0.00 66 1017.1
20260905214936 28 190 6.4 17.7 0.00 0.00 0.00 66 1017.1
20260905214926 28 124 6.4 17.7 0.00 0.00 0.00 65 1017.1
20260905214908 28 93 6.4 17.7 0.00 0.00 0.00 65 1017.1
20260905214711 28 105 6.4 17.7 0.00 0.00 0.00 65 1017.1
20260905214659 28 90 6.4 17.7 0.00 0.00 0.00 65 1017.1
20260905214429 28 124 6.4 19.3 0.00 0.00 0.00 64 1017.1
20260905214329 28 134 6.4 19.3 0.00 0.00 0.00 64 1017.1
20260905214235 29 92 6.4 19.3 0.00 0.00 0.00 64 1017.0
20260905214128 29 109 6.4 20.9 0.00 0.00 0.00 64 1017.0
20260905214028 29 77 6.4 20.9 0.00 0.00 0.00 64 1016.9
20260905213918 29 187 6.4 20.9 0.00 0.00 0.00 63 1016.9
20260905213819 29 80 4.8 20.9 0.00 0.00 0.00 64 1016.8
20260905213719 29 108 6.4 20.9 0.00 0.00 0.00 64 1016.8
20260905213620 30 180 6.4 20.9 0.00 0.00 0.00 63 1016.8
20260905213540 30 182 6.4 19.3 0.00 0.00 0.00 63 1016.9
20260905213535 30 169 4.8 20.9 0.00 0.00 0.00 62 1016.9
20260905213521 30 138 6.4 20.9 0.00 0.00 0.00 63 1016.8
20260905213501 30 68 6.4 20.9 0.00 0.00 0.00 63 1016.8
20260905213437 30 109 6.4 20.9 0.00 0.00 0.00 63 1016.8
20260905213142 30 168 4.8 16.1 0.00 0.00 0.00 63 1016.8
20260905212950 30 200 6.4 19.3 0.00 0.00 0.00 62 1016.9
20260905212936 30 128 6.4 19.3 0.00 0.00 0.00 62 1016.9
20260905212705 30 202 6.4 19.3 0.00 0.00 0.00 62 1017.0
20260905212647 30 55 6.4 19.3 0.00 0.00 0.00 62 1016.9
20260905212635 30 126 6.4 19.3 0.00 0.00 0.00 62 1017.0
20260905212353 30 110 6.4 24.1 0.00 0.00 0.00 61 1016.9
20260905212252 30 137 8.0 24.1 0.00 0.00 0.00 61 1016.9
20260905212151 31 17 8.0 24.1 0.00 0.00 0.00 61 1016.9
20260905212051 31 128 8.0 24.1 0.00 0.00 0.00 61 1016.9
20260905211954 31 148 8.0 24.1 0.00 0.00 0.00 60 1016.8
20260905211853 31 136 8.0 24.1 0.00 0.00 0.00 60 1016.9
20260905211800 31 39 8.0 24.1 0.00 0.00 0.00 59 1016.9
20260905211749 31 38 8.0 24.1 0.00 0.00 0.00 59 1016.8
20260905211732 31 67 8.0 24.1 0.00 0.00 0.00 59 1016.8
20260905211451 31 80 8.0 24.1 0.00 0.00 0.00 60 1016.9
20260905211423 31 69 8.0 24.1 0.00 0.00 0.00 60 1016.9
20260905211404 31 27 8.0 24.1 0.00 0.00 0.00 60 1017.0
20260905211142 31 76 8.0 24.1 0.00 0.00 0.00 59 1016.9
20260905211038 31 58 8.0 24.1 0.00 0.00 0.00 60 1016.9
20260905210939 31 34 9.7 24.1 0.00 0.00 0.00 60 1017.0
20260905210828 31 41 9.7 22.5 0.00 0.00 0.00 60 1016.9
20260905210735 31 82 9.7 22.5 0.00 0.00 0.00 61 1016.9
20260905210628 31 30 9.7 22.5 0.00 0.00 0.00 60 1016.9
20260905210529 31 86 9.7 22.5 0.00 0.00 0.00 60 1016.9
20260905210429 31 0 8.0 22.5 0.00 0.00 0.00 61 1017.0
20260905210324 31 101 8.0 22.5 0.00 0.00 0.00 61 1017.0
20260905210303 30 57 8.0 22.5 0.00 0.00 0.00 61 1017.0
20260905210251 31 83 8.0 22.5 0.00 0.00 0.00 61 1017.0
20260905210022 31 65 8.0 19.3 0.00 0.00 0.00 61 1016.9
20260905205922 30 17 8.0 19.3 0.00 0.00 0.00 62 1017.0
20260905205852 30 50 8.0 19.3 0.00 0.00 0.00 62 1016.9
20260905205841 30 40 8.0 19.3 0.00 0.00 0.00 62 1016.9
20260905205617 30 54 6.4 19.3 0.00 0.00 0.00 61 1016.8
20260905205515 30 73 6.4 19.3 0.00 0.00 0.00 62 1016.9
20260905205416 30 69 6.4 19.3 0.00 0.00 0.00 62 1016.9
20260905205313 30 36 6.4 19.3 0.00 0.00 0.00 61 1016.8
20260905205212 30 74 6.4 19.3 0.00 0.00 0.00 61 1016.9
20260905205109 30 90 6.4 19.3 0.00 0.00 0.00 61 1016.9
20260905205013 30 27 6.4 19.3 0.00 0.00 0.00 61 1016.8
20260905204909 31 49 6.4 17.7 0.00 0.00 0.00 61 1016.8
20260905204808 31 70 4.8 17.7 0.00 0.00 0.00 61 1016.8
20260905204708 31 90 6.4 17.7 0.00 0.00 0.00 61 1016.8
20260905204606 31 96 6.4 17.7 0.00 0.00 0.00 61 1016.8
20260905204505 30 32 6.4 17.7 0.00 0.00 0.00 62 1016.8
20260905204405 30 138 6.4 17.7 0.00 0.00 0.00 61 1016.7
20260905204305 30 30 6.4 17.7 0.00 0.00 0.00 62 1016.8
20260905204205 30 147 6.4 17.7 0.00 0.00 0.00 61 1016.8
20260905204107 30 28 6.4 17.7 0.00 0.00 0.00 62 1016.8
20260905204042 30 55 8.0 20.9 0.00 0.00 0.00 61 1016.8
20260905204031 30 24 8.0 17.7 0.00 0.00 0.00 61 1016.8
20260905203804 30 355 9.7 20.9 0.00 0.00 0.00 61 1016.9
20260905203705 30 81 9.7 20.9 0.00 0.00 0.00 62 1016.9
20260905203557 30 59 8.0 20.9 0.00 0.00 0.00 61 1016.9
20260905203514 31 38 9.7 20.9 0.00 0.00 0.00 59 1016.8
20260905203503 30 0 9.7 20.9 0.00 0.00 0.00 61 1016.9
20260905203442 30 44 9.7 20.9 0.00 0.00 0.00 61 1016.9
20260905203321 31 27 9.7 20.9 0.00 0.00 0.00 60 1016.9
20260905203132 31 33 8.0 20.9 0.00 0.00 0.00 60 1016.9
20260905203118 31 69 9.7 20.9 0.00 0.00 0.00 59 1017.0
20260905202858 31 42 8.0 20.9 0.00 0.00 0.00 59 1017.0
20260905202758 31 49 8.0 20.9 0.00 0.00 0.00 59 1016.9
20260905202655 31 94 8.0 20.9 0.00 0.00 0.00 60 1017.0
20260905202558 31 91 8.0 20.9 0.00 0.00 0.00 60 1017.0
20260905202454 31 88 6.4 20.9 0.00 0.00 0.00 60 1017.0
20260905202355 31 114 6.4 17.7 0.00 0.00 0.00 61 1017.0
20260905202254 31 86 6.4 16.1 0.00 0.00 0.00 60 1017.0
20260905202153 31 106 8.0 16.1 0.00 0.00 0.00 60 1017.0
20260905202053 31 80 8.0 16.1 0.00 0.00 0.00 59 1017.0
20260905202026 31 67 8.0 16.1 0.00 0.00 0.00 59 1017.0
20260905202014 31 86 8.0 16.1 0.00 0.00 0.00 59 1017.0
20260905201827 31 61 8.0 16.1 0.00 0.00 0.00 59 1017.0
20260905201810 31 36 8.0 16.1 0.00 0.00 0.00 59 1017.1
20260905201545 31 31 8.0 16.1 0.00 0.00 0.00 58 1017.0
20260905201445 31 60 8.0 16.1 0.00 0.00 0.00 57 1017.0
20260905201418 32 22 8.0 19.3 0.00 0.00 0.00 57 1017.0
20260905201406 32 38 8.0 19.3 0.00 0.00 0.00 57 1017.1
20260905201141 32 64 8.0 19.3 0.00 0.00 0.00 57 1017.1
20260905201057 32 59 6.4 19.3 0.00 0.00 0.00 56 1017.1
20260905201042 32 30 8.0 19.3 0.00 0.00 0.00 56 1017.1
20260905201035 33 62 6.4 19.3 0.00 0.00 0.00 54 1017.1
20260905201030 33 47 6.4 19.3 0.00 0.00 0.00 55 1017.1
20260905201014 32 32 8.0 19.3 0.00 0.00 0.00 56 1017.1
20260905200823 33 86 6.4 19.3 0.00 0.00 0.00 55 1017.1
20260905200510 33 62 4.8 16.1 0.00 0.00 0.00 54 1017.2
20260905200500 33 30 6.4 19.3 0.00 0.00 0.00 54 1017.1
20260905200308 33 0 4.8 16.1 0.00 0.00 0.00 53 1017.1
20260905200258 33 43 4.8 16.1 0.00 0.00 0.00 53 1017.1
20260905200038 33 342 4.8 16.1 0.00 0.00 0.00 52 1017.2
20260905195938 33 333 4.8 16.1 0.00 0.00 0.00 52 1017.1
20260905195837 33 255 4.8 16.1 0.00 0.00 0.00 52 1017.1
20260905195739 33 283 4.8 16.1 0.00 0.00 0.00 53 1017.2
20260905195638 33 23 4.8 16.1 0.00 0.00 0.00 52 1017.1
20260905195539 33 307 4.8 16.1 0.00 0.00 0.00 52 1017.1
20260905195433 33 282 4.8 14.5 0.00 0.00 0.00 53 1017.2
20260905195356 33 342 4.8 11.3 0.00 0.00 0.00 53 1017.2
20260905195350 33 342 4.8 11.3 0.00 0.00 0.00 53 1017.1
20260905195340 33 205 4.8 14.5 0.00 0.00 0.00 53 1017.2
20260905195314 33 271 4.8 14.5 0.00 0.00 0.00 52 1017.2
20260905194935 33 72 4.8 11.3 0.00 0.00 0.00 54 1017.2
20260905194835 33 61 4.8 9.7 0.00 0.00 0.00 53 1017.2
20260905194800 33 28 4.8 9.7 0.00 0.00 0.00 54 1017.3
20260905194750 33 61 4.8 9.7 0.00 0.00 0.00 55 1017.2
20260905194530 33 340 4.8 9.7 0.00 0.00 0.00 54 1017.2
20260905194430 33 52 3.2 9.7 0.00 0.00 0.00 54 1017.3
20260905194330 33 89 3.2 9.7 0.00 0.00 0.00 54 1017.3
20260905194230 33 114 3.2 9.7 0.00 0.00 0.00 53 1017.3
20260905194129 33 49 3.2 9.7 0.00 0.00 0.00 53 1017.3
20260905194030 33 46 4.8 9.7 0.00 0.00 0.00 55 1017.3
20260905194004 33 98 4.8 9.7 0.00 0.00 0.00 54 1017.3
20260905193954 33 94 4.8 9.7 0.00 0.00 0.00 54 1017.2
20260905193736 32 21 3.2 9.7 0.00 0.00 0.00 54 1017.3
20260905193630 32 22 3.2 9.7 0.00 0.00 0.00 55 1017.3
20260905193529 32 70 3.2 9.7 0.00 0.00 0.00 55 1017.3
20260905193436 32 75 3.2 9.7 0.00 0.00 0.00 54 1017.3
20260905193329 32 76 3.2 9.7 0.00 0.00 0.00 54 1017.3
20260905193229 32 67 3.2 9.7 0.00 0.00 0.00 54 1017.3
20260905193130 32 66 3.2 9.7 0.00 0.00 0.00 54 1017.3
20260905193030 32 59 3.2 11.3 0.00 0.00 0.00 54 1017.3
20260905192929 33 51 3.2 11.3 0.00 0.00 0.00 55 1017.3
20260905192830 33 11 4.8 12.9 0.00 0.00 0.00 54 1017.4
20260905192730 33 11 4.8 12.9 0.00 0.00 0.00 54 1017.4
20260905192635 33 5 4.8 12.9 0.00 0.00 0.00 54 1017.4
20260905192609 33 51 4.8 12.9 0.00 0.00 0.00 54 1017.5
20260905192555 33 64 4.8 12.9 0.00 0.00 0.00 55 1017.4
20260905192329 33 301 4.8 12.9 0.00 0.00 0.00 54 1017.5
20260905192230 33 317 6.4 12.9 0.00 0.00 0.00 54 1017.5
20260905192131 33 306 6.4 12.9 0.00 0.00 0.00 54 1017.5
20260905192031 33 323 6.4 12.9 0.00 0.00 0.00 54 1017.5
20260905191931 33 299 6.4 12.9 0.00 0.00 0.00 54 1017.6
20260905191829 33 340 6.4 12.9 0.00 0.00 0.00 54 1017.6
20260905191730 33 0 4.8 12.9 0.00 0.00 0.00 55 1017.7
20260905191705 33 185 4.8 12.9 0.00 0.00 0.00 55 1017.8
20260905191655 33 345 4.8 12.9 0.00 0.00 0.00 56 1017.7
20260905191429 33 288 6.4 14.5 0.00 0.00 0.00 55 1017.8
20260905191330 33 320 6.4 14.5 0.00 0.00 0.00 55 1017.9
20260905191229 32 226 6.4 14.5 0.00 0.00 0.00 56 1017.9
20260905191130 32 207 4.8 14.5 0.00 0.00 0.00 55 1017.8
20260905191030 32 346 4.8 14.5 0.00 0.00 0.00 54 1017.8
20260905190929 33 308 4.8 14.5 0.00 0.00 0.00 55 1017.7
20260905190830 33 240 4.8 14.5 0.00 0.00 0.00 56 1017.8
20260905190729 32 169 4.8 14.5 0.00 0.00 0.00 55 1017.8
20260905190629 32 299 4.8 14.5 0.00 0.00 0.00 56 1017.8
20260905190530 33 329 4.8 14.5 0.00 0.00 0.00 55 1017.7
20260905190430 32 319 4.8 12.9 0.00 0.00 0.00 55 1017.7
20260905190329 33 56 4.8 14.5 0.00 0.00 0.00 55 1017.7
20260905190231 33 275 4.8 14.5 0.00 0.00 0.00 56 1017.8
20260905190130 32 19 4.8 14.5 0.00 0.00 0.00 55 1017.8
20260905190023 32 9 3.2 14.5 0.00 0.00 0.00 55 1017.7
20260905185925 32 331 4.8 14.5 0.00 0.00 0.00 55 1017.7
20260905185826 32 29 3.2 14.5 0.00 0.00 0.00 55 1017.8
20260905185724 32 30 3.2 14.5 0.00 0.00 0.00 56 1017.9
20260905185626 32 80 3.2 14.5 0.00 0.00 0.00 56 1017.9
20260905185522 32 71 3.2 14.5 0.00 0.00 0.00 55 1017.9
20260905185420 32 57 3.2 14.5 0.00 0.00 0.00 55 1017.9
20260905185320 32 119 3.2 6.4 0.00 0.00 0.00 55 1017.9
20260905185222 32 119 3.2 8.0 0.00 0.00 0.00 56 1017.9
20260905185120 32 110 3.2 8.0 0.00 0.00 0.00 56 1017.8
20260905185015 32 86 3.2 12.9 0.00 0.00 0.00 55 1017.9
20260905184912 32 81 3.2 12.9 0.00 0.00 0.00 56 1018.0
20260905184811 32 78 3.2 12.9 0.00 0.00 0.00 56 1017.9
20260905184748 32 31 4.8 12.9 0.00 0.00 0.00 55 1017.9
20260905184736 32 78 4.8 12.9 0.00 0.00 0.00 56 1018.0
20260905184533 32 348 6.4 14.5 0.00 0.00 0.00 56 1017.9
20260905184519 32 32 4.8 12.9 0.00 0.00 0.00 56 1018.0
20260905184454 32 5 4.8 12.9 0.00 0.00 0.00 56 1017.9
20260905184330 32 355 4.8 12.9 0.00 0.00 0.00 55 1017.9
20260905184106 32 80 6.4 14.5 0.00 0.00 0.00 55 1018.0
20260905184006 32 98 6.4 14.5 0.00 0.00 0.00 55 1017.9
20260905183907 32 76 6.4 14.5 0.00 0.00 0.00 55 1017.9
20260905183805 32 59 6.4 14.5 0.00 0.00 0.00 55 1017.9
20260905183709 32 51 6.4 14.5 0.00 0.00 0.00 54 1018.0
20260905183605 32 5 6.4 14.5 0.00 0.00 0.00 55 1017.9
20260905183505 32 323 6.4 14.5 0.00 0.00 0.00 56 1018.0
20260905183405 32 290 6.4 14.5 0.00 0.00 0.00 55 1018.0
20260905183303 32 305 4.8 14.5 0.00 0.00 0.00 54 1018.0
20260905183159 32 316 3.2 14.5 0.00 0.00 0.00 55 1018.0
20260905183100 32 317 3.2 14.5 0.00 0.00 0.00 55 1018.0
20260905182959 32 330 3.2 14.5 0.00 0.00 0.00 55 1018.0
20260905182900 32 22 3.2 14.5 0.00 0.00 0.00 56 1018.0
20260905182753 32 296 3.2 14.5 0.00 0.00 0.00 57 1018.1
20260905182655 32 31 3.2 11.3 0.00 0.00 0.00 57 1018.1
20260905182555 32 38 3.2 11.3 0.00 0.00 0.00 58 1018.1
20260905182453 32 82 3.2 11.3 0.00 0.00 0.00 58 1018.0
20260905182359 32 78 4.8 16.1 0.00 0.00 0.00 57 1018.0
20260905182247 32 78 4.8 16.1 0.00 0.00 0.00 57 1018.0
20260905182208 32 326 6.4 16.1 0.00 0.00 0.00 56 1018.2
20260905182157 32 78 6.4 16.1 0.00 0.00 0.00 57 1018.1
20260905182135 32 232 6.4 16.1 0.00 0.00 0.00 56 1018.2
20260905182012 32 326 6.4 16.1 0.00 0.00 0.00 56 1018.2
20260905181821 32 325 4.8 16.1 0.00 0.00 0.00 56 1018.4
20260905181808 32 312 4.8 16.1 0.00 0.00 0.00 57 1018.4
20260905181549 32 273 4.8 16.1 0.00 0.00 0.00 56 1018.4
20260905181443 32 298 4.8 16.1 0.00 0.00 0.00 56 1018.4
20260905181342 32 267 4.8 14.5 0.00 0.00 0.00 56 1018.4
20260905181330 32 311 3.2 8.0 0.00 0.00 0.00 57 1018.4
20260905181314 32 311 4.8 12.9 0.00 0.00 0.00 56 1018.4
20260905181041 32 310 3.2 8.0 0.00 0.00 0.00 57 1018.2
20260905180942 32 10 3.2 8.0 0.00 0.00 0.00 57 1018.4
20260905180840 32 10 3.2 8.0 0.00 0.00 0.00 57 1018.2
20260905180740 32 343 3.2 8.0 0.00 0.00 0.00 56 1018.4
20260905180648 32 291 3.2 8.0 0.00 0.00 0.00 57 1018.4
20260905180606 32 317 3.2 8.0 0.00 0.00 0.00 57 1018.4
20260905180435 32 9 3.2 8.0 0.00 0.00 0.00 58 1018.4
20260905180335 32 5 3.2 8.0 0.00 0.00 0.00 59 1018.4
20260905180235 32 35 3.2 8.0 0.00 0.00 0.00 58 1018.4
20260905180136 32 51 3.2 11.3 0.00 0.00 0.00 60 1018.5
20260905180033 32 31 3.2 11.3 0.00 0.00 0.00 60 1018.5
20260905175929 31 335 3.2 11.3 0.00 0.00 0.00 59 1018.4
20260905175830 31 300 3.2 11.3 0.00 0.00 0.00 60 1018.4
20260905175729 31 103 4.8 11.3 0.00 0.00 0.00 59 1018.5
20260905175629 31 80 4.8 11.3 0.00 0.00 0.00 60 1018.5
20260905175524 31 81 3.2 11.3 0.00 0.00 0.00 59 1018.5
20260905175423 31 31 4.8 11.3 0.00 0.00 0.00 58 1018.5
20260905175356 31 0 3.2 9.7 0.00 0.00 0.00 58 1018.6
20260905175345 31 34 4.8 11.3 0.00 0.00 0.00 58 1018.6
20260905175123 31 18 3.2 9.7 0.00 0.00 0.00 60 1018.6
20260905175053 31 79 3.2 11.3 0.00 0.00 0.00 59 1018.7
20260905175041 31 70 3.2 9.7 0.00 0.00 0.00 59 1018.6
20260905174816 31 37 3.2 11.3 0.00 0.00 0.00 59 1018.6
20260905174715 31 46 3.2 11.3 0.00 0.00 0.00 58 1018.6
20260905174616 31 49 4.8 11.3 0.00 0.00 0.00 58 1018.6
20260905174519 31 51 4.8 11.3 0.00 0.00 0.00 60 1018.6
20260905174416 31 74 4.8 11.3 0.00 0.00 0.00 59 1018.6
20260905174312 31 82 4.8 11.3 0.00 0.00 0.00 59 1018.6
20260905174213 31 82 4.8 11.3 0.00 0.00 0.00 60 1018.6
20260905174116 31 355 4.8 11.3 0.00 0.00 0.00 58 1018.6
20260905174056 31 26 4.8 9.7 0.00 0.00 0.00 59 1018.6
20260905174042 31 5 3.2 11.3 0.00 0.00 0.00 58 1018.6
20260905173812 31 14 4.8 14.5 0.00 0.00 0.00 60 1018.6
20260905173712 31 69 4.8 14.5 0.00 0.00 0.00 60 1018.6
20260905173612 31 339 4.8 14.5 0.00 0.00 0.00 60 1018.6
20260905173513 31 328 4.8 14.5 0.00 0.00 0.00 59 1018.6
20260905173409 31 109 4.8 14.5 0.00 0.00 0.00 59 1018.6
20260905173310 31 87 4.8 14.5 0.00 0.00 0.00 59 1018.6
20260905173208 31 85 4.8 14.5 0.00 0.00 0.00 60 1018.7
20260905173107 31 63 6.4 14.5 0.00 0.00 0.00 62 1018.7
20260905173007 31 22 4.8 14.5 0.00 0.00 0.00 60 1018.7
20260905172903 31 42 4.8 14.5 0.00 0.00 0.00 61 1018.7
20260905172804 31 15 4.8 12.9 0.00 0.00 0.00 60 1018.7
20260905172703 31 38 3.2 12.9 0.00 0.00 0.00 59 1018.7
20260905172604 31 351 3.2 12.9 0.00 0.00 0.00 61 1018.7
20260905172504 31 70 3.2 12.9 0.00 0.00 0.00 59 1018.7
20260905172403 31 17 3.2 8.0 0.00 0.00 0.00 61 1018.7
20260905172305 31 19 3.2 8.0 0.00 0.00 0.00 61 1018.8
20260905172203 31 63 3.2 8.0 0.00 0.00 0.00 62 1018.7
20260905172103 31 355 3.2 8.0 0.00 0.00 0.00 62 1018.7
20260905172001 31 292 3.2 12.9 0.00 0.00 0.00 62 1018.7
20260905171932 31 62 4.8 12.9 0.00 0.00 0.00 63 1018.8
20260905171921 31 62 4.8 12.9 0.00 0.00 0.00 62 1018.7
20260905171752 31 63 6.4 16.1 0.00 0.00 0.00 63 1018.8
20260905171747 31 21 4.8 16.1 0.00 0.00 0.00 62 1018.8
20260905171733 31 342 4.8 16.1 0.00 0.00 0.00 62 1018.8
20260905171548 31 5 4.8 16.1 0.00 0.00 0.00 63 1018.8
20260905171421 31 9 6.4 16.1 0.00 0.00 0.00 62 1018.8
20260905171157 31 9 6.4 16.1 0.00 0.00 0.00 64 1018.9
20260905171057 31 0 6.4 16.1 0.00 0.00 0.00 63 1018.9
20260905171027 30 44 6.4 16.1 0.00 0.00 0.00 64 1018.9
20260905171015 30 39 6.4 16.1 0.00 0.00 0.00 63 1018.9
20260905170752 30 54 6.4 16.1 0.00 0.00 0.00 64 1018.8
20260905170717 30 92 6.4 16.1 0.00 0.00 0.00 64 1018.8
20260905170707 30 60 6.4 16.1 0.00 0.00 0.00 64 1018.9
20260905170444 30 57 6.4 16.1 0.00 0.00 0.00 65 1018.9
20260905170345 30 103 6.4 16.1 0.00 0.00 0.00 64 1019.0
20260905170240 30 51 6.4 16.1 0.00 0.00 0.00 65 1019.0
20260905170141 30 68 6.4 16.1 0.00 0.00 0.00 65 1019.0
20260905170041 30 54 6.4 12.9 0.00 0.00 0.00 66 1019.0
20260905170012 30 308 6.4 17.7 0.00 0.00 0.00 65 1019.0
20260905170003 30 78 6.4 17.7 0.00 0.00 0.00 64 1019.0
20260905165742 30 0 6.4 17.7 0.00 0.00 0.00 64 1019.1
20260905165641 30 29 6.4 17.7 0.00 0.00 0.00 66 1019.0
20260905165610 30 0 8.0 17.7 0.00 0.00 0.00 65 1019.0
20260905165600 30 34 6.4 17.7 0.00 0.00 0.00 67 1019.0
20260905165342 30 38 8.0 17.7 0.00 0.00 0.00 66 1019.0
20260905165241 30 67 8.0 17.7 0.00 0.00 0.00 65 1019.0
20260905165142 30 67 8.0 17.7 0.00 0.00 0.00 65 1019.0
20260905165115 30 77 6.4 16.1 0.00 0.00 0.00 66 1019.1
20260905165111 30 67 6.4 16.1 0.00 0.00 0.00 65 1019.1
20260905165058 30 87 6.4 17.7 0.00 0.00 0.00 65 1019.1
20260905165032 30 77 6.4 16.1 0.00 0.00 0.00 66 1019.0
20260905164638 30 42 4.8 14.5 0.00 0.00 0.00 65 1019.0
20260905164558 30 69 4.8 14.5 0.00 0.00 0.00 67 1019.0
20260905164552 30 5 6.4 14.5 0.00 0.00 0.00 66 1019.0
20260905164543 30 11 4.8 14.5 0.00 0.00 0.00 64 1019.0
20260905164519 30 18 4.8 14.5 0.00 0.00 0.00 66 1019.1
20260905164135 30 57 6.4 14.5 0.00 0.00 0.00 66 1019.0
20260905164037 30 76 4.8 14.5 0.00 0.00 0.00 65 1019.2
20260905163948 30 29 4.8 12.9 0.00 0.00 0.00 66 1019.1
20260905163834 30 14 4.8 12.9 0.00 0.00 0.00 65 1019.1
20260905163737 30 0 4.8 12.9 0.00 0.00 0.00 66 1019.2
20260905163713 30 47 4.8 12.9 0.00 0.00 0.00 67 1019.2
20260905163659 30 78 4.8 12.9 0.00 0.00 0.00 66 1019.2
20260905163434 30 80 4.8 12.9 0.00 0.00 0.00 65 1019.2
20260905163333 30 0 4.8 11.3 0.00 0.00 0.00 66 1019.2
20260905163235 30 0 4.8 14.5 0.00 0.00 0.00 68 1019.2
20260905163133 30 11 4.8 14.5 0.00 0.00 0.00 66 1019.3
20260905163032 30 11 4.8 14.5 0.00 0.00 0.00 67 1019.3
20260905162931 30 15 4.8 14.5 0.00 0.00 0.00 68 1019.3
20260905162904 29 54 4.8 14.5 0.00 0.00 0.00 67 1019.3
20260905162854 29 115 4.8 14.5 0.00 0.00 0.00 67 1019.3
20260905162632 29 84 4.8 14.5 0.00 0.00 0.00 68 1019.3
20260905162529 29 59 4.8 14.5 0.00 0.00 0.00 68 1019.3
20260905162429 29 82 4.8 14.5 0.00 0.00 0.00 67 1019.3
20260905162329 29 68 4.8 14.5 0.00 0.00 0.00 68 1019.3
20260905162229 29 67 4.8 12.9 0.00 0.00 0.00 67 1019.3
20260905162131 29 22 4.8 12.9 0.00 0.00 0.00 67 1019.3
20260905162105 29 65 4.8 12.9 0.00 0.00 0.00 69 1019.3
20260905162055 29 5 4.8 12.9 0.00 0.00 0.00 68 1019.3
20260905161828 29 9 3.2 11.3 0.00 0.00 0.00 69 1019.3
20260905161727 29 70 3.2 11.3 0.00 0.00 0.00 68 1019.3
20260905161628 29 46 3.2 11.3 0.00 0.00 0.00 69 1019.3
20260905161525 29 33 3.2 8.0 0.00 0.00 0.00 69 1019.3
20260905161420 29 77 3.2 8.0 0.00 0.00 0.00 70 1019.3
20260905161319 29 0 4.8 8.0 0.00 0.00 0.00 69 1019.4
20260905161220 29 0 4.8 11.3 0.00 0.00 0.00 68 1019.4
20260905161120 29 0 4.8 11.3 0.00 0.00 0.00 68 1019.4
20260905161022 29 342 4.8 11.3 0.00 0.00 0.00 68 1019.4
20260905160914 29 339 4.8 11.3 0.00 0.00 0.00 69 1019.4
20260905160813 29 70 4.8 11.3 0.00 0.00 0.00 69 1019.4
20260905160752 29 38 4.8 11.3 0.00 0.00 0.00 69 1019.3
20260905160740 29 44 4.8 11.3 0.00 0.00 0.00 69 1019.4
20260905160514 29 93 4.8 11.3 0.00 0.00 0.00 69 1019.4
20260905160403 29 61 4.8 12.9 0.00 0.00 0.00 70 1019.3
20260905160344 29 67 4.8 12.9 0.00 0.00 0.00 70 1019.3
20260905160328 29 44 4.8 12.9 0.00 0.00 0.00 68 1019.3
20260905160104 28 59 4.8 12.9 0.00 0.00 0.00 70 1019.3
20260905160006 28 76 4.8 12.9 0.00 0.00 0.00 70 1019.3
20260905155903 28 58 4.8 12.9 0.00 0.00 0.00 70 1019.3
20260905155805 28 61 4.8 12.9 0.00 0.00 0.00 68 1019.2
20260905155703 28 61 4.8 12.9 0.00 0.00 0.00 69 1019.4
20260905155603 29 36 3.2 12.9 0.00 0.00 0.00 70 1019.3
20260905155503 29 10 3.2 12.9 0.00 0.00 0.00 69 1019.3
20260905155408 29 42 3.2 9.7 0.00 0.00 0.00 68 1019.3
20260905155331 29 67 3.2 6.4 0.00 0.00 0.00 68 1019.3
20260905155322 29 69 3.2 6.4 0.00 0.00 0.00 69 1019.3
20260905155103 29 63 3.2 6.4 0.00 0.00 0.00 67 1019.3
20260905155004 29 9 3.2 6.4 0.00 0.00 0.00 69 1019.3
20260905154906 29 39 3.2 8.0 0.00 0.00 0.00 69 1019.3
20260905154803 29 39 3.2 8.0 0.00 0.00 0.00 68 1019.4
20260905154655 29 17 3.2 8.0 0.00 0.00 0.00 68 1019.4
20260905154556 29 51 3.2 8.0 0.00 0.00 0.00 68 1019.4
20260905154457 29 51 3.2 8.0 0.00 0.00 0.00 69 1019.3
20260905154356 29 13 3.2 8.0 0.00 0.00 0.00 69 1019.3
20260905154300 29 45 1.6 8.0 0.00 0.00 0.00 67 1019.3
20260905154155 29 74 1.6 8.0 0.00 0.00 0.00 68 1019.2
20260905154055 29 19 1.6 8.0 0.00 0.00 0.00 68 1019.3
20260905153957 29 34 1.6 8.0 0.00 0.00 0.00 69 1019.3
20260905153853 29 25 1.6 6.4 0.00 0.00 0.00 68 1019.3
20260905153751 29 68 1.6 6.4 0.00 0.00 0.00 67 1019.2
20260905153644 29 40 1.6 6.4 0.00 0.00 0.00 69 1019.3
20260905153545 29 49 3.2 8.0 0.00 0.00 0.00 68 1019.3
20260905153443 29 49 3.2 8.0 0.00 0.00 0.00 67 1019.3
20260905153418 29 49 3.2 8.0 0.00 0.00 0.00 68 1019.3
20260905153408 29 49 3.2 8.0 0.00 0.00 0.00 68 1019.3
20260905153135 29 73 3.2 8.0 0.00 0.00 0.00 69 1019.2
20260905153035 29 68 3.2 8.0 0.00 0.00 0.00 68 1019.3
20260905152940 29 325 3.2 9.7 0.00 0.00 0.00 67 1019.3
20260905152921 29 12 3.2 9.7 0.00 0.00 0.00 67 1019.3
20260905152908 29 5 3.2 9.7 0.00 0.00 0.00 67 1019.3
20260905152635 29 59 3.2 9.7 0.00 0.00 0.00 69 1019.3
20260905152536 29 46 3.2 9.7 0.00 0.00 0.00 68 1019.3
20260905152437 29 46 4.8 9.7 0.00 0.00 0.00 68 1019.4
20260905152337 29 44 4.8 9.7 0.00 0.00 0.00 66 1019.3
20260905152234 29 56 4.8 12.9 0.00 0.00 0.00 67 1019.4
20260905152143 29 38 4.8 12.9 0.00 0.00 0.00 67 1019.3
20260905152039 29 25 4.8 12.9 0.00 0.00 0.00 67 1019.3
20260905151936 29 16 4.8 12.9 0.00 0.00 0.00 66 1019.4
20260905151833 29 67 3.2 12.9 0.00 0.00 0.00 67 1019.3
20260905151738 29 55 4.8 12.9 0.00 0.00 0.00 68 1019.4
20260905151710 29 11 3.2 12.9 0.00 0.00 0.00 68 1019.4
20260905151658 29 112 4.8 12.9 0.00 0.00 0.00 67 1019.3
20260905151429 29 64 3.2 12.9 0.00 0.00 0.00 68 1019.4
20260905151335 28 47 3.2 12.9 0.00 0.00 0.00 68 1019.3
20260905151226 28 24 3.2 8.0 0.00 0.00 0.00 67 1019.4
20260905151150 28 34 1.6 8.0 0.00 0.00 0.00 67 1019.4
20260905151132 28 10 3.2 8.0 0.00 0.00 0.00 67 1019.4
20260905151118 28 34 1.6 8.0 0.00 0.00 0.00 68 1019.4
20260905151100 28 11 1.6 8.0 0.00 0.00 0.00 67 1019.4
20260905150751 28 74 1.6 9.7 0.00 0.00 0.00 70 1019.4
20260905150741 28 20 1.6 9.7 0.00 0.00 0.00 69 1019.3
20260905150521 28 73 1.6 9.7 0.00 0.00 0.00 71 1019.3
20260905150416 28 73 3.2 9.7 0.00 0.00 0.00 70 1019.3
20260905150317 28 75 3.2 9.7 0.00 0.00 0.00 70 1019.3
20260905150217 28 76 3.2 9.7 0.00 0.00 0.00 70 1019.3
20260905150115 28 76 3.2 9.7 0.00 0.00 0.00 71 1019.3
20260905150017 28 76 4.8 9.7 0.00 0.00 0.00 71 1019.2
20260905145957 28 86 4.8 9.7 0.00 0.00 0.00 72 1019.2
20260905145943 28 76 4.8 9.7 0.00 0.00 0.00 71 1019.3
20260905145712 28 9 4.8 9.7 0.00 0.00 0.00 71 1019.3
20260905145611 28 66 4.8 9.7 0.00 0.00 0.00 71 1019.3
20260905145511 28 98 4.8 9.7 0.00 0.00 0.00 70 1019.3
20260905145410 28 65 4.8 11.3 0.00 0.00 0.00 68 1019.3
20260905145312 28 54 4.8 11.3 0.00 0.00 0.00 69 1019.3
20260905145212 28 87 4.8 11.3 0.00 0.00 0.00 71 1019.3
20260905145113 28 89 4.8 11.3 0.00 0.00 0.00 72 1019.3
20260905145032 28 76 3.2 11.3 0.00 0.00 0.00 72 1019.3
20260905145019 28 69 3.2 11.3 0.00 0.00 0.00 72 1019.3
20260905144957 28 52 3.2 11.3 0.00 0.00 0.00 72 1019.3
20260905144834 28 67 3.2 11.3 0.00 0.00 0.00 71 1019.3
20260905144610 27 70 3.2 11.3 0.00 0.00 0.00 72 1019.3
20260905144541 27 76 4.8 9.7 0.00 0.00 0.00 72 1019.2
20260905144529 27 84 3.2 11.3 0.00 0.00 0.00 72 1019.3
20260905144342 27 63 4.8 9.7 0.00 0.00 0.00 73 1019.2
20260905144331 27 106 4.8 9.7 0.00 0.00 0.00 72 1019.2
20260905144109 27 62 4.8 9.7 0.00 0.00 0.00 73 1019.2
20260905144035 27 40 4.8 9.7 0.00 0.00 0.00 73 1019.2
20260905144026 27 64 4.8 9.7 0.00 0.00 0.00 73 1019.3
20260905143806 27 36 3.2 9.7 0.00 0.00 0.00 73 1019.2
20260905143705 27 52 3.2 9.7 0.00 0.00 0.00 73 1019.2
20260905143605 27 49 3.2 9.7 0.00 0.00 0.00 72 1019.2
20260905143529 27 58 3.2 6.4 0.00 0.00 0.00 73 1019.2
20260905143525 27 58 3.2 6.4 0.00 0.00 0.00 72 1019.2
20260905143511 27 55 3.2 9.7 0.00 0.00 0.00 73 1019.3
20260905143451 27 55 3.2 8.0 0.00 0.00 0.00 74 1019.3
20260905143141 27 73 3.2 6.4 0.00 0.00 0.00 73 1019.2
20260905143129 27 73 3.2 6.4 0.00 0.00 0.00 73 1019.2
20260905142902 27 58 3.2 4.8 0.00 0.00 0.00 74 1019.2
20260905142803 27 58 3.2 4.8 0.00 0.00 0.00 73 1019.2
20260905142659 27 58 3.2 8.0 0.00 0.00 0.00 73 1019.1
20260905142628 27 58 3.2 9.7 0.00 0.00 0.00 74 1019.2
20260905142617 27 58 3.2 8.0 0.00 0.00 0.00 73 1019.1
20260905142352 27 57 3.2 9.7 0.00 0.00 0.00 74 1019.2
20260905142254 27 59 3.2 9.7 0.00 0.00 0.00 73 1019.1
20260905142154 27 69 3.2 9.7 0.00 0.00 0.00 73 1019.2
20260905142053 27 69 3.2 9.7 0.00 0.00 0.00 73 1019.2
20260905141953 27 69 3.2 9.7 0.00 0.00 0.00 72 1019.2
20260905141853 27 71 3.2 9.7 0.00 0.00 0.00 73 1019.2
20260905141753 27 74 3.2 9.7 0.00 0.00 0.00 73 1019.1
20260905141654 27 58 3.2 9.7 0.00 0.00 0.00 73 1019.2
20260905141624 27 64 3.2 8.0 0.00 0.00 0.00 73 1019.1
20260905141617 27 58 3.2 9.7 0.00 0.00 0.00 72 1019.2
20260905141353 27 44 3.2 8.0 0.00 0.00 0.00 74 1019.1
20260905141254 27 59 3.2 8.0 0.00 0.00 0.00 74 1019.1
20260905141151 27 59 3.2 8.0 0.00 0.00 0.00 73 1019.1
20260905141051 27 59 3.2 8.0 0.00 0.00 0.00 73 1019.1
20260905140948 27 59 3.2 8.0 0.00 0.00 0.00 73 1019.1
20260905140849 27 59 3.2 8.0 0.00 0.00 0.00 73 1019.1
20260905140743 27 56 3.2 8.0 0.00 0.00 0.00 74 1019.2
20260905140641 27 73 3.2 8.0 0.00 0.00 0.00 72 1019.1
20260905140546 27 63 3.2 8.0 0.00 0.00 0.00 73 1019.1
20260905140442 27 46 3.2 8.0 0.00 0.00 0.00 73 1019.2
20260905140342 27 46 3.2 8.0 0.00 0.00 0.00 74 1019.2
20260905140243 27 30 3.2 8.0 0.00 0.00 0.00 74 1019.1
20260905140140 27 55 3.2 8.0 0.00 0.00 0.00 74 1019.1
20260905140107 27 47 1.6 4.8 0.00 0.00 0.00 73 1019.0
20260905140058 27 57 1.6 8.0 0.00 0.00 0.00 73 1019.1
20260905135927 27 46 3.2 8.0 0.00 0.00 0.00 74 1019.0
20260905135921 27 49 3.2 8.0 0.00 0.00 0.00 73 1019.0
20260905135916 27 46 3.2 8.0 0.00 0.00 0.00 74 1019.1
20260905135910 27 46 3.2 8.0 0.00 0.00 0.00 74 1019.0
20260905135856 27 46 3.2 4.8 0.00 0.00 0.00 73 1019.1
20260905135838 27 49 3.2 8.0 0.00 0.00 0.00 73 1019.0
20260905135557 27 28 3.2 8.0 0.00 0.00 0.00 74 1019.0
20260905135544 27 38 3.2 8.0 0.00 0.00 0.00 74 1019.1
20260905135518 27 46 3.2 8.0 0.00 0.00 0.00 74 1019.0
20260905135213 27 46 3.2 8.0 0.00 0.00 0.00 74 1019.0
20260905134828 27 33 3.2 8.0 0.00 0.00 0.00 75 1019.0
20260905134729 27 66 3.2 8.0 0.00 0.00 0.00 74 1019.0
20260905134634 27 57 3.2 8.0 0.00 0.00 0.00 74 1019.1
20260905134522 27 57 3.2 8.0 0.00 0.00 0.00 74 1019.1
20260905134422 27 57 3.2 8.0 0.00 0.00 0.00 74 1019.1
20260905134326 27 58 3.2 8.0 0.00 0.00 0.00 74 1019.1
20260905134221 27 62 3.2 8.0 0.00 0.00 0.00 74 1019.1
20260905134141 27 64 3.2 8.0 0.00 0.00 0.00 73 1019.2
20260905134036 27 65 3.2 8.0 0.00 0.00 0.00 73 1019.2
20260905134009 27 56 3.2 8.0 0.00 0.00 0.00 74 1019.3
20260905133957 27 56 3.2 8.0 0.00 0.00 0.00 74 1019.2
20260905133720 27 56 3.2 8.0 0.00 0.00 0.00 73 1019.2
20260905133621 27 34 3.2 8.0 0.00 0.00 0.00 73 1019.2
20260905133550 27 9 3.2 8.0 0.00 0.00 0.00 74 1019.2
20260905133541 27 9 3.2 8.0 0.00 0.00 0.00 73 1019.2
20260905133351 26 59 3.2 8.0 0.00 0.00 0.00 73 1019.3
20260905133346 27 9 3.2 8.0 0.00 0.00 0.00 74 1019.3
20260905133156 26 48 3.2 8.0 0.00 0.00 0.00 73 1019.3
20260905133030 26 36 3.2 8.0 0.00 0.00 0.00 73 1019.3
20260905133018 26 34 3.2 8.0 0.00 0.00 0.00 73 1019.4
20260905133005 26 36 3.2 8.0 0.00 0.00 0.00 72 1019.4
20260905132740 26 53 1.6 8.0 0.00 0.00 0.00 74 1019.4
20260905132732 26 53 3.2 8.0 0.00 0.00 0.00 74 1019.4
20260905132549 26 43 1.6 4.8 0.00 0.00 0.00 74 1019.5
20260905132535 26 26 1.6 4.8 0.00 0.00 0.00 74 1019.4
20260905132310 26 43 1.6 4.8 0.00 0.00 0.00 74 1019.4
20260905132210 26 60 1.6 4.8 0.00 0.00 0.00 74 1019.4
20260905132108 26 60 3.2 4.8 0.00 0.00 0.00 74 1019.4
20260905132009 26 60 3.2 4.8 0.00 0.00 0.00 74 1019.4
20260905131919 26 60 3.2 4.8 0.00 0.00 0.00 74 1019.4
20260905131847 26 60 3.2 4.8 0.00 0.00 0.00 73 1019.4
20260905131736 26 60 3.2 6.4 0.00 0.00 0.00 73 1019.5
20260905131726 26 60 3.2 4.8 0.00 0.00 0.00 73 1019.5
20260905131508 26 60 3.2 12.9 0.00 0.00 0.00 73 1019.5
20260905131407 26 60 3.2 12.9 0.00 0.00 0.00 73 1019.5
20260905131308 26 58 3.2 12.9 0.00 0.00 0.00 74 1019.5
20260905131207 26 23 3.2 12.9 0.00 0.00 0.00 74 1019.5
20260905131106 26 23 3.2 12.9 0.00 0.00 0.00 73 1019.5
20260905131008 26 5 3.2 12.9 0.00 0.00 0.00 73 1019.6
20260905130910 26 60 3.2 12.9 0.00 0.00 0.00 73 1019.5
20260905130811 26 60 3.2 12.9 0.00 0.00 0.00 74 1019.5
20260905130706 26 61 3.2 12.9 0.00 0.00 0.00 73 1019.5
20260905130606 26 19 3.2 12.9 0.00 0.00 0.00 74 1019.5
20260905130508 26 44 3.2 6.4 0.00 0.00 0.00 74 1019.5
20260905130407 26 44 3.2 6.4 0.00 0.00 0.00 74 1019.5
20260905130357 26 46 3.2 8.0 0.00 0.00 0.00 74 1019.5
20260905130352 26 42 3.2 11.3 0.00 0.00 0.00 74 1019.5
20260905130346 26 51 3.2 11.3 0.00 0.00 0.00 74 1019.4
20260905130335 26 42 3.2 6.4 0.00 0.00 0.00 74 1019.5
20260905130151 26 51 3.2 11.3 0.00 0.00 0.00 74 1019.5
20260905125808 26 50 3.2 11.3 0.00 0.00 0.00 74 1019.5
20260905125731 26 23 3.2 11.3 0.00 0.00 0.00 73 1019.5
20260905125726 26 0 3.2 11.3 0.00 0.00 0.00 73 1019.5
20260905125712 26 43 3.2 11.3 0.00 0.00 0.00 73 1019.5
20260905125651 26 42 3.2 11.3 0.00 0.00 0.00 73 1019.5
20260905125306 26 61 3.2 11.3 0.00 0.00 0.00 73 1019.5
20260905125234 26 24 3.2 8.0 0.00 0.00 0.00 73 1019.5
20260905125224 26 11 3.2 11.3 0.00 0.00 0.00 73 1019.5
20260905125002 26 22 3.2 8.0 0.00 0.00 0.00 73 1019.5
20260905124904 26 15 3.2 8.0 0.00 0.00 0.00 73 1019.5
20260905124802 26 12 3.2 8.0 0.00 0.00 0.00 73 1019.5
20260905124704 26 12 3.2 8.0 0.00 0.00 0.00 72 1019.5
20260905124603 26 0 3.2 8.0 0.00 0.00 0.00 73 1019.4
20260905124504 26 36 3.2 8.0 0.00 0.00 0.00 73 1019.5
20260905124403 26 23 3.2 8.0 0.00 0.00 0.00 73 1019.5
20260905124302 26 15 3.2 8.0 0.00 0.00 0.00 73 1019.5
20260905124255 26 47 3.2 6.4 0.00 0.00 0.00 73 1019.4
20260905124251 26 57 3.2 6.4 0.00 0.00 0.00 73 1019.5
20260905124245 26 13 3.2 6.4 0.00 0.00 0.00 73 1019.4
20260905124228 26 48 3.2 8.0 0.00 0.00 0.00 73 1019.5
20260905124207 26 48 3.2 6.4 0.00 0.00 0.00 73 1019.4
20260905123735 26 24 3.2 8.0 0.00 0.00 0.00 73 1019.4
20260905123726 26 24 3.2 8.0 0.00 0.00 0.00 73 1019.4
20260905123504 26 35 3.2 8.0 0.00 0.00 0.00 73 1019.4
20260905123402 26 33 3.2 8.0 0.00 0.00 0.00 73 1019.4
20260905123304 26 54 3.2 8.0 0.00 0.00 0.00 73 1019.3
20260905123204 26 54 3.2 8.0 0.00 0.00 0.00 73 1019.5
20260905123104 26 17 3.2 8.0 0.00 0.00 0.00 73 1019.4
20260905123008 26 16 3.2 8.0 0.00 0.00 0.00 73 1019.4
20260905122902 26 5 3.2 8.0 0.00 0.00 0.00 73 1019.4
20260905122803 26 21 3.2 8.0 0.00 0.00 0.00 73 1019.3
20260905122709 26 5 3.2 8.0 0.00 0.00 0.00 73 1019.4
20260905122637 26 11 3.2 8.0 0.00 0.00 0.00 73 1019.4
20260905122626 26 12 3.2 8.0 0.00 0.00 0.00 73 1019.3
20260905122404 26 32 3.2 8.0 0.00 0.00 0.00 73 1019.3
20260905122306 26 5 3.2 8.0 0.00 0.00 0.00 73 1019.2
20260905122202 26 5 3.2 8.0 0.00 0.00 0.00 73 1019.2
20260905122103 26 5 3.2 8.0 0.00 0.00 0.00 73 1019.3
20260905122003 26 5 3.2 8.0 0.00 0.00 0.00 73 1019.3
20260905121903 26 19 3.2 6.4 0.00 0.00 0.00 73 1019.2
20260905121803 26 19 3.2 6.4 0.00 0.00 0.00 73 1019.2
20260905121702 26 19 3.2 6.4 0.00 0.00 0.00 73 1019.2
20260905121603 26 18 3.2 6.4 0.00 0.00 0.00 73 1019.2
20260905121502 26 19 3.2 6.4 0.00 0.00 0.00 73 1019.2
20260905121404 26 19 3.2 6.4 0.00 0.00 0.00 73 1019.3
20260905121302 26 19 3.2 6.4 0.00 0.00 0.00 72 1019.2
20260905121204 26 19 3.2 6.4 0.00 0.00 0.00 73 1019.2
20260905121102 26 13 3.2 6.4 0.00 0.00 0.00 73 1019.2
20260905121002 26 13 3.2 6.4 0.00 0.00 0.00 73 1019.3
20260905120921 26 11 3.2 6.4 0.00 0.00 0.00 73 1019.2
20260905120916 26 15 3.2 6.4 0.00 0.00 0.00 73 1019.2